Time,TemperatureF,DewpointF,PressureIn,WindDirection,WindDirectionDegrees,WindSpeedMPH,WindSpeedGustMPH,Humidity,HourlyPrecipIn,Conditions,Clouds,dailyrainin,SoftwareType,DateUTC
2013-06-04 00:02:00,67.1,61.8,29.95,NNE,25,0.0,0.0,83,0.00,,---,0.00,VWS V14.01,2013-06-04 05:02:00,
2013-06-04 00:03:00,67.0,61.7,29.95,NNE,25,0.0,0.0,83,0.00,,---,0.00,VWS V14.01,2013-06-04 05:03:00,
2013-06-04 00:07:00,66.9,61.9,29.95,NNE,24,0.0,0.0,84,0.00,,---,0.00,VWS V14.01,2013-06-04 05:07:00,
2013-06-04 00:08:00,66.8,61.8,29.95,NNE,24,0.0,0.0,84,0.00,,---,0.00,VWS V14.01,2013-06-04 05:08:00,
2013-06-04 00:12:00,66.7,61.7,29.95,NNE,24,0.0,0.0,84,0.00,,---,0.00,VWS V14.01,2013-06-04 05:12:00,
2013-06-04 00:13:00,66.7,61.7,29.95,NNE,24,0.0,0.0,84,0.00,,---,0.00,VWS V14.01,2013-06-04 05:13:00,
2013-06-04 00:17:00,66.6,61.6,29.95,NNE,20,0.0,0.0,84,0.00,,---,0.00,VWS V14.01,2013-06-04 05:17:00,
2013-06-04 00:18:00,66.6,61.6,29.95,North,4,0.0,0.0,84,0.00,,---,0.00,VWS V14.01,2013-06-04 05:18:00,
2013-06-04 00:22:00,66.6,61.6,29.95,North,349,0.0,0.0,84,0.00,,---,0.00,VWS V14.01,2013-06-04 05:22:00,
2013-06-04 00:23:00,66.6,61.6,29.95,NNE,13,1.0,1.0,84,0.00,,---,0.00,VWS V14.01,2013-06-04 05:23:00,
2013-06-04 00:27:00,66.6,61.6,29.96,North,354,1.0,1.0,84,0.00,,---,0.00,VWS V14.01,2013-06-04 05:27:00,
2013-06-04 00:28:00,66.6,61.6,29.96,North,352,0.0,1.0,84,0.00,,---,0.00,VWS V14.01,2013-06-04 05:28:00,
2013-06-04 00:29:00,66.6,61.6,29.96,North,352,0.0,1.0,84,0.00,,---,0.00,VWS V14.01,2013-06-04 05:29:00,
2013-06-04 00:32:00,66.5,61.5,29.96,North,352,0.0,0.0,84,0.00,,---,0.00,VWS V14.01,2013-06-04 05:32:00,
2013-06-04 00:33:00,66.5,61.9,29.96,North,352,0.0,0.0,85,0.00,,---,0.00,VWS V14.01,2013-06-04 05:33:00,
2013-06-04 00:34:00,66.5,61.9,29.96,North,352,0.0,0.0,85,0.00,,---,0.00,VWS V14.01,2013-06-04 05:34:00,
2013-06-04 00:37:00,66.4,61.8,29.96,North,351,0.0,1.0,85,0.00,,---,0.00,VWS V14.01,2013-06-04 05:37:00,
2013-06-04 00:39:00,66.4,61.8,29.96,North,350,0.0,1.0,85,0.00,,---,0.00,VWS V14.01,2013-06-04 05:39:00,
2013-06-04 00:42:00,66.3,61.7,29.96,NNW,337,1.0,1.0,85,0.00,,---,0.00,VWS V14.01,2013-06-04 05:42:00,
2013-06-04 00:44:00,66.3,61.7,29.96,NNW,337,1.0,1.0,85,0.00,,---,0.00,VWS V14.01,2013-06-04 05:44:00,
2013-06-04 00:47:00,66.2,61.6,29.96,NNW,337,0.0,1.0,85,0.00,,---,0.00,VWS V14.01,2013-06-04 05:47:00,
2013-06-04 00:49:00,66.2,61.6,29.96,NNW,337,0.0,1.0,85,0.00,,---,0.00,VWS V14.01,2013-06-04 05:49:00,
2013-06-04 00:53:00,66.1,61.5,29.96,NNW,337,0.0,1.0,85,0.00,,---,0.00,VWS V14.01,2013-06-04 05:53:00,
2013-06-04 00:54:00,66.0,61.4,29.96,East,84,2.0,2.0,85,0.00,,---,0.00,VWS V14.01,2013-06-04 05:54:00,
2013-06-04 00:58:00,65.9,61.6,29.96,NNW,343,0.0,2.0,86,0.00,,---,0.00,VWS V14.01,2013-06-04 05:58:00,
2013-06-04 00:59:00,65.9,61.6,29.96,NNW,343,1.0,2.0,86,0.00,,---,0.00,VWS V14.01,2013-06-04 05:59:00,
2013-06-04 01:00:00,66.0,61.7,29.96,NNW,343,0.0,2.0,86,0.00,,---,0.00,VWS V14.01,2013-06-04 06:00:00,
2013-06-04 01:03:00,65.9,61.6,29.96,NNW,343,0.0,1.0,86,0.00,,---,0.00,VWS V14.01,2013-06-04 06:03:00,
2013-06-04 01:04:00,65.9,61.6,29.96,NNW,340,1.0,1.0,86,0.00,,---,0.00,VWS V14.01,2013-06-04 06:04:00,
2013-06-04 01:05:00,65.9,61.6,29.96,NNW,340,1.0,1.0,86,0.00,,---,0.00,VWS V14.01,2013-06-04 06:05:00,
2013-06-04 01:08:00,65.9,61.6,29.96,North,352,0.0,2.0,86,0.00,,---,0.00,VWS V14.01,2013-06-04 06:08:00,
2013-06-04 01:09:00,65.9,61.6,29.96,North,353,1.0,2.0,86,0.00,,---,0.00,VWS V14.01,2013-06-04 06:09:00,
2013-06-04 01:10:00,65.9,61.6,29.96,North,353,0.0,2.0,86,0.00,,---,0.00,VWS V14.01,2013-06-04 06:10:00,
2013-06-04 01:13:00,65.8,61.5,29.96,NNE,17,0.0,2.0,86,0.00,,---,0.00,VWS V14.01,2013-06-04 06:13:00,
2013-06-04 01:15:00,65.8,61.5,29.96,East,83,1.0,5.0,86,0.00,,---,0.00,VWS V14.01,2013-06-04 06:15:00,
2013-06-04 01:18:00,65.8,61.5,29.96,ENE,67,0.0,4.0,86,0.00,,---,0.00,VWS V14.01,2013-06-04 06:18:00,
2013-06-04 01:20:00,65.8,61.5,29.96,ENE,67,0.0,4.0,86,0.00,,---,0.00,VWS V14.01,2013-06-04 06:20:00,
2013-06-04 01:23:00,65.7,61.4,29.96,North,359,0.0,4.0,86,0.00,,---,0.00,VWS V14.01,2013-06-04 06:23:00,
2013-06-04 01:25:00,65.6,61.3,29.96,North,359,0.0,4.0,86,0.00,,---,0.00,VWS V14.01,2013-06-04 06:25:00,
2013-06-04 01:26:00,65.6,61.3,29.96,North,359,0.0,4.0,86,0.00,,---,0.00,VWS V14.01,2013-06-04 06:26:00,
2013-06-04 01:28:00,65.6,61.3,29.96,North,354,0.0,4.0,86,0.00,,---,0.00,VWS V14.01,2013-06-04 06:28:00,
2013-06-04 01:30:00,65.5,61.2,29.96,North,354,1.0,4.0,86,0.00,,---,0.00,VWS V14.01,2013-06-04 06:30:00,
2013-06-04 01:32:00,65.5,61.2,29.96,North,355,0.0,0.0,86,0.00,,---,0.00,VWS V14.01,2013-06-04 06:32:00,
2013-06-04 01:34:00,65.4,61.1,29.96,North,353,1.0,1.0,86,0.00,,---,0.00,VWS V14.01,2013-06-04 06:34:00,
2013-06-04 01:35:00,65.4,61.4,29.96,NNW,345,0.0,1.0,87,0.00,,---,0.00,VWS V14.01,2013-06-04 06:35:00,
2013-06-04 01:36:00,65.4,61.4,29.96,NNW,344,1.0,1.0,87,0.00,,---,0.00,VWS V14.01,2013-06-04 06:36:00,
2013-06-04 01:37:00,65.4,61.4,29.95,NNW,343,0.0,1.0,87,0.00,,---,0.00,VWS V14.01,2013-06-04 06:37:00,
2013-06-04 01:39:00,65.3,61.3,29.95,NNW,344,1.0,2.0,87,0.00,,---,0.00,VWS V14.01,2013-06-04 06:39:00,
2013-06-04 01:40:00,65.3,61.3,29.95,NNW,342,0.0,2.0,87,0.00,,---,0.00,VWS V14.01,2013-06-04 06:40:00,
2013-06-04 01:41:00,65.3,61.3,29.95,NNW,342,0.0,2.0,87,0.00,,---,0.00,VWS V14.01,2013-06-04 06:41:00,
2013-06-04 01:42:00,65.3,61.3,29.95,NNW,342,1.0,2.0,87,0.00,,---,0.00,VWS V14.01,2013-06-04 06:42:00,
2013-06-04 01:45:00,65.3,61.3,29.96,NNW,342,0.0,2.0,87,0.00,,---,0.00,VWS V14.01,2013-06-04 06:45:00,
2013-06-04 01:46:00,65.2,61.2,29.96,NNW,342,0.0,0.0,87,0.00,,---,0.00,VWS V14.01,2013-06-04 06:46:00,
2013-06-04 01:47:00,65.2,61.2,29.96,NNW,342,0.0,0.0,87,0.00,,---,0.00,VWS V14.01,2013-06-04 06:47:00,
2013-06-04 01:50:00,65.1,61.1,29.96,NE,52,0.0,2.0,87,0.00,,---,0.00,VWS V14.01,2013-06-04 06:50:00,
2013-06-04 01:51:00,65.2,61.2,29.96,NW,318,0.0,2.0,87,0.00,,---,0.00,VWS V14.01,2013-06-04 06:51:00,
2013-06-04 01:52:00,65.1,61.1,29.96,NW,318,0.0,2.0,87,0.00,,---,0.00,VWS V14.01,2013-06-04 06:52:00,
2013-06-04 01:55:00,65.0,61.0,29.96,NW,320,0.0,2.0,87,0.00,,---,0.00,VWS V14.01,2013-06-04 06:55:00,
2013-06-04 01:56:00,65.0,61.0,29.96,NW,319,0.0,2.0,87,0.00,,---,0.00,VWS V14.01,2013-06-04 06:56:00,
2013-06-04 01:57:00,65.0,61.0,29.96,NW,319,0.0,2.0,87,0.00,,---,0.00,VWS V14.01,2013-06-04 06:57:00,
2013-06-04 02:00:00,64.9,60.9,29.96,NW,321,0.0,2.0,87,0.00,,---,0.00,VWS V14.01,2013-06-04 07:00:00,
2013-06-04 02:01:00,64.9,60.9,29.96,NW,321,0.0,0.0,87,0.00,,---,0.00,VWS V14.01,2013-06-04 07:01:00,
2013-06-04 02:02:00,64.9,60.9,29.96,NW,321,0.0,0.0,87,0.00,,---,0.00,VWS V14.01,2013-06-04 07:02:00,
2013-06-04 02:06:00,64.8,61.2,29.96,North,8,0.0,1.0,88,0.00,,---,0.00,VWS V14.01,2013-06-04 07:06:00,
2013-06-04 02:07:00,64.8,61.2,29.95,North,8,0.0,1.0,88,0.00,,---,0.00,VWS V14.01,2013-06-04 07:07:00,
2013-06-04 02:11:00,64.7,61.1,29.95,North,4,0.0,1.0,88,0.00,,---,0.00,VWS V14.01,2013-06-04 07:11:00,
2013-06-04 02:12:00,64.7,61.1,29.95,North,4,0.0,1.0,88,0.00,,---,0.00,VWS V14.01,2013-06-04 07:12:00,
2013-06-04 02:17:00,64.6,61.0,29.95,East,89,0.0,0.0,88,0.00,,---,0.00,VWS V14.01,2013-06-04 07:17:00,
2013-06-04 02:18:00,64.5,60.9,29.95,East,87,1.0,1.0,88,0.00,,---,0.00,VWS V14.01,2013-06-04 07:18:00,
2013-06-04 02:22:00,64.5,61.0,29.95,NNW,347,0.0,3.0,88,0.00,,,0.00,weatherlink.com 1.10,2013-06-04 07:22:00,
2013-06-04 02:23:00,64.5,60.9,29.95,NNW,347,0.0,2.0,88,0.00,,---,0.00,VWS V14.01,2013-06-04 07:23:00,
2013-06-04 02:27:00,64.4,60.8,29.95,North,354,0.0,2.0,88,0.00,,---,0.00,VWS V14.01,2013-06-04 07:27:00,
2013-06-04 02:28:00,64.3,60.7,29.95,North,353,0.0,2.0,88,0.00,,---,0.00,VWS V14.01,2013-06-04 07:28:00,
2013-06-04 02:32:00,64.3,61.0,29.96,North,359,0.0,1.0,89,0.00,,---,0.00,VWS V14.01,2013-06-04 07:32:00,
2013-06-04 02:33:00,64.2,60.9,29.96,North,359,0.0,1.0,89,0.00,,---,0.00,VWS V14.01,2013-06-04 07:33:00,
2013-06-04 02:37:00,64.2,60.9,29.95,North,356,0.0,1.0,89,0.00,,---,0.00,VWS V14.01,2013-06-04 07:37:00,
2013-06-04 02:38:00,64.2,60.9,29.95,North,356,0.0,1.0,89,0.00,,---,0.00,VWS V14.01,2013-06-04 07:38:00,
2013-06-04 02:42:00,64.2,60.9,29.96,NNW,346,1.0,2.0,89,0.00,,---,0.00,VWS V14.01,2013-06-04 07:42:00,
2013-06-04 02:43:00,64.2,60.9,29.96,NNW,347,0.0,2.0,89,0.00,,---,0.00,VWS V14.01,2013-06-04 07:43:00,
2013-06-04 02:47:00,64.1,60.8,29.96,ENE,70,1.0,2.0,89,0.00,,---,0.00,VWS V14.01,2013-06-04 07:47:00,
2013-06-04 02:48:00,64.1,60.8,29.96,ENE,70,0.0,2.0,89,0.00,,---,0.00,VWS V14.01,2013-06-04 07:48:00,
2013-06-04 02:53:00,64.0,60.7,29.96,ENE,75,1.0,2.0,89,0.00,,---,0.00,VWS V14.01,2013-06-04 07:53:00,
2013-06-04 02:58:00,63.8,60.5,29.95,NE,46,0.0,2.0,89,0.00,,---,0.00,VWS V14.01,2013-06-04 07:58:00,
2013-06-04 03:03:00,63.7,60.7,29.95,North,7,0.0,0.0,90,0.00,,---,0.00,VWS V14.01,2013-06-04 08:03:00,
2013-06-04 03:04:00,63.7,60.7,29.95,North,7,0.0,0.0,90,0.00,,---,0.00,VWS V14.01,2013-06-04 08:04:00,
2013-06-04 03:08:00,63.5,60.5,29.95,North,7,0.0,1.0,90,0.00,,---,0.00,VWS V14.01,2013-06-04 08:08:00,
2013-06-04 03:09:00,63.5,60.5,29.95,North,8,1.0,1.0,90,0.00,,---,0.00,VWS V14.01,2013-06-04 08:09:00,
2013-06-04 03:13:00,63.5,60.5,29.95,ENE,60,0.0,2.0,90,0.00,,---,0.00,VWS V14.01,2013-06-04 08:13:00,
2013-06-04 03:14:00,63.5,60.5,29.95,ENE,60,1.0,2.0,90,0.00,,---,0.00,VWS V14.01,2013-06-04 08:14:00,
2013-06-04 03:18:00,63.4,60.4,29.95,ENE,60,0.0,1.0,90,0.00,,---,0.00,VWS V14.01,2013-06-04 08:18:00,
2013-06-04 03:19:00,63.4,60.4,29.95,ENE,63,2.0,2.0,90,0.00,,---,0.00,VWS V14.01,2013-06-04 08:19:00,
2013-06-04 03:23:00,63.3,60.6,29.95,ENE,66,0.0,2.0,91,0.00,,---,0.00,VWS V14.01,2013-06-04 08:23:00,
2013-06-04 03:24:00,63.3,60.6,29.95,ENE,65,0.0,2.0,91,0.00,,---,0.00,VWS V14.01,2013-06-04 08:24:00,
2013-06-04 03:29:00,63.2,60.5,29.95,ENE,73,0.0,2.0,91,0.00,,---,0.00,VWS V14.01,2013-06-04 08:29:00,
2013-06-04 03:34:00,63.1,60.4,29.95,ENE,73,0.0,0.0,91,0.00,,---,0.00,VWS V14.01,2013-06-04 08:34:00,
2013-06-04 03:39:00,63.1,60.4,29.95,East,87,1.0,4.0,91,0.00,,---,0.00,VWS V14.01,2013-06-04 08:39:00,
2013-06-04 03:40:00,63.1,60.4,29.95,East,88,0.0,4.0,91,0.00,,---,0.00,VWS V14.01,2013-06-04 08:40:00,
2013-06-04 03:44:00,63.1,60.4,29.95,East,86,0.0,4.0,91,0.00,,---,0.00,VWS V14.01,2013-06-04 08:44:00,
2013-06-04 03:45:00,63.1,60.4,29.95,East,86,0.0,4.0,91,0.00,,---,0.00,VWS V14.01,2013-06-04 08:45:00,
2013-06-04 03:49:00,63.1,60.4,29.95,East,82,0.0,3.0,91,0.00,,---,0.00,VWS V14.01,2013-06-04 08:49:00,
2013-06-04 03:50:00,63.1,60.4,29.95,East,82,0.0,3.0,91,0.00,,---,0.00,VWS V14.01,2013-06-04 08:50:00,
2013-06-04 03:54:00,63.0,60.3,29.95,ENE,67,0.0,3.0,91,0.00,,---,0.00,VWS V14.01,2013-06-04 08:54:00,
2013-06-04 03:55:00,63.0,60.3,29.95,ENE,67,2.0,3.0,91,0.00,,---,0.00,VWS V14.01,2013-06-04 08:55:00,
2013-06-04 03:59:00,63.0,60.3,29.95,ENE,65,1.0,3.0,91,0.00,,---,0.00,VWS V14.01,2013-06-04 08:59:00,
2013-06-04 04:00:00,63.0,60.3,29.95,East,91,0.0,3.0,91,0.00,,---,0.00,VWS V14.01,2013-06-04 09:00:00,
2013-06-04 04:04:00,63.0,60.3,29.95,East,91,0.0,1.0,91,0.00,,---,0.00,VWS V14.01,2013-06-04 09:04:00,
2013-06-04 04:05:00,63.0,60.3,29.95,East,91,0.0,1.0,91,0.00,,---,0.00,VWS V14.01,2013-06-04 09:05:00,
2013-06-04 04:09:00,63.0,60.3,29.95,East,90,0.0,2.0,91,0.00,,---,0.00,VWS V14.01,2013-06-04 09:09:00,
2013-06-04 04:10:00,63.0,60.3,29.95,East,90,0.0,2.0,91,0.00,,---,0.00,VWS V14.01,2013-06-04 09:10:00,
2013-06-04 04:15:00,63.0,60.3,29.95,East,90,1.0,2.0,91,0.00,,---,0.00,VWS V14.01,2013-06-04 09:15:00,
2013-06-04 04:16:00,62.9,60.2,29.95,East,90,0.0,2.0,91,0.00,,---,0.00,VWS V14.01,2013-06-04 09:16:00,
2013-06-04 04:20:00,62.9,60.2,29.95,East,89,0.0,0.0,91,0.00,,---,0.00,VWS V14.01,2013-06-04 09:20:00,
2013-06-04 04:21:00,62.8,60.1,29.95,North,352,0.0,1.0,91,0.00,,---,0.00,VWS V14.01,2013-06-04 09:21:00,
2013-06-04 04:25:00,62.7,60.0,29.94,North,352,0.0,1.0,91,0.00,,---,0.00,VWS V14.01,2013-06-04 09:25:00,
2013-06-04 04:26:00,62.7,60.0,29.95,North,352,0.0,1.0,91,0.00,,---,0.00,VWS V14.01,2013-06-04 09:26:00,
2013-06-04 04:30:00,62.6,59.9,29.95,North,1,0.0,1.0,91,0.00,,---,0.00,VWS V14.01,2013-06-04 09:30:00,
2013-06-04 04:31:00,62.6,59.9,29.95,North,353,1.0,1.0,91,0.00,,---,0.00,VWS V14.01,2013-06-04 09:31:00,
2013-06-04 04:32:00,62.6,59.9,29.95,North,353,0.0,1.0,91,0.00,,---,0.00,VWS V14.01,2013-06-04 09:32:00,
2013-06-04 04:35:00,62.6,60.2,29.95,North,353,1.0,1.0,92,0.00,,---,0.00,VWS V14.01,2013-06-04 09:35:00,
2013-06-04 04:36:00,62.6,60.2,29.95,North,353,0.0,1.0,92,0.00,,---,0.00,VWS V14.01,2013-06-04 09:36:00,
2013-06-04 04:37:00,62.6,60.2,29.95,North,353,0.0,1.0,92,0.00,,---,0.00,VWS V14.01,2013-06-04 09:37:00,
2013-06-04 04:40:00,62.5,60.2,29.95,North,353,1.0,2.0,92,0.00,,---,0.00,VWS V14.01,2013-06-04 09:40:00,
2013-06-04 04:41:00,62.5,60.2,29.95,East,79,2.0,2.0,92,0.00,,---,0.00,VWS V14.01,2013-06-04 09:41:00,
2013-06-04 04:42:00,62.5,60.2,29.95,East,80,0.0,2.0,92,0.00,,---,0.00,VWS V14.01,2013-06-04 09:42:00,
2013-06-04 04:45:00,62.5,60.2,29.95,East,80,0.0,2.0,92,0.00,,---,0.00,VWS V14.01,2013-06-04 09:45:00,
2013-06-04 04:46:00,62.5,60.2,29.95,East,80,0.0,0.0,92,0.00,,---,0.00,VWS V14.01,2013-06-04 09:46:00,
2013-06-04 04:47:00,62.5,60.2,29.95,East,79,0.0,0.0,92,0.00,,---,0.00,VWS V14.01,2013-06-04 09:47:00,
2013-06-04 04:50:00,62.5,60.2,29.95,North,349,1.0,1.0,92,0.00,,---,0.00,VWS V14.01,2013-06-04 09:50:00,
2013-06-04 04:51:00,62.4,60.0,29.95,North,354,1.0,1.0,92,0.00,,---,0.00,VWS V14.01,2013-06-04 09:51:00,
2013-06-04 04:52:00,62.5,60.2,29.95,ENE,77,1.0,2.0,92,0.00,,---,0.00,VWS V14.01,2013-06-04 09:52:00,
2013-06-04 04:53:00,62.5,60.2,29.95,North,360,1.0,2.0,92,0.00,,---,0.00,VWS V14.01,2013-06-04 09:53:00,
2013-06-04 04:56:00,62.5,60.2,29.95,North,353,1.0,1.0,92,0.00,,---,0.00,VWS V14.01,2013-06-04 09:56:00,
2013-06-04 04:57:00,62.5,60.2,29.95,North,353,1.0,1.0,92,0.00,,---,0.00,VWS V14.01,2013-06-04 09:57:00,
2013-06-04 04:58:00,62.5,60.2,29.95,North,7,1.0,2.0,92,0.00,,---,0.00,VWS V14.01,2013-06-04 09:58:00,
2013-06-04 05:01:00,62.5,59.8,29.95,East,90,1.0,2.0,91,0.00,,---,0.00,VWS V14.01,2013-06-04 10:01:00,
2013-06-04 05:02:00,62.5,59.8,29.95,East,90,0.0,2.0,91,0.00,,---,0.00,VWS V14.01,2013-06-04 10:02:00,
2013-06-04 05:03:00,62.6,59.9,29.95,ENE,77,3.0,3.0,91,0.00,,---,0.00,VWS V14.01,2013-06-04 10:03:00,
2013-06-04 05:07:00,62.6,59.9,29.95,ENE,69,1.0,3.0,91,0.00,,---,0.00,VWS V14.01,2013-06-04 10:07:00,
2013-06-04 05:08:00,62.6,59.9,29.95,ENE,63,1.0,4.0,91,0.00,,---,0.00,VWS V14.01,2013-06-04 10:08:00,
2013-06-04 05:12:00,62.6,59.9,29.95,North,7,0.0,4.0,91,0.00,,---,0.00,VWS V14.01,2013-06-04 10:12:00,
2013-06-04 05:13:00,62.6,59.9,29.95,East,86,1.0,5.0,91,0.00,,---,0.00,VWS V14.01,2013-06-04 10:13:00,
2013-06-04 05:17:00,62.6,59.9,29.95,East,86,3.0,3.0,91,0.00,,---,0.00,VWS V14.01,2013-06-04 10:17:00,
2013-06-04 05:18:00,62.5,59.8,29.95,ENE,67,2.0,4.0,91,0.00,,---,0.00,VWS V14.01,2013-06-04 10:18:00,
2013-06-04 05:22:00,62.6,59.9,29.95,East,90,2.0,4.0,91,0.00,,---,0.00,VWS V14.01,2013-06-04 10:22:00,
2013-06-04 05:23:00,62.6,59.9,29.95,East,90,1.0,4.0,91,0.00,,---,0.00,VWS V14.01,2013-06-04 10:23:00,
2013-06-04 05:27:00,62.6,59.9,29.95,NE,51,0.0,4.0,91,0.00,,---,0.00,VWS V14.01,2013-06-04 10:27:00,
2013-06-04 05:28:00,62.6,59.9,29.95,NE,52,0.0,4.0,91,0.00,,---,0.00,VWS V14.01,2013-06-04 10:28:00,
2013-06-04 05:29:00,62.6,59.9,29.95,NE,51,0.0,4.0,91,0.00,,---,0.00,VWS V14.01,2013-06-04 10:29:00,
2013-06-04 05:32:00,62.5,59.8,29.95,ENE,72,1.0,5.0,91,0.00,,---,0.00,VWS V14.01,2013-06-04 10:32:00,
2013-06-04 05:33:00,62.5,59.8,29.95,ENE,73,3.0,5.0,91,0.00,,---,0.00,VWS V14.01,2013-06-04 10:33:00,
2013-06-04 05:34:00,62.5,59.8,29.95,ENE,74,1.0,5.0,91,0.00,,---,0.00,VWS V14.01,2013-06-04 10:34:00,
2013-06-04 05:37:00,62.5,59.8,29.95,East,92,1.0,5.0,91,0.00,,---,0.00,VWS V14.01,2013-06-04 10:37:00,
2013-06-04 05:38:00,62.5,59.8,29.95,East,93,0.0,5.0,91,0.00,,---,0.00,VWS V14.01,2013-06-04 10:38:00,
2013-06-04 05:39:00,62.5,59.8,29.95,East,93,2.0,5.0,91,0.00,,---,0.00,VWS V14.01,2013-06-04 10:39:00,
2013-06-04 05:42:00,62.4,59.7,29.95,ENE,71,0.0,5.0,91,0.00,,---,0.00,VWS V14.01,2013-06-04 10:42:00,
2013-06-04 05:43:00,62.4,59.7,29.95,East,82,3.0,5.0,91,0.00,,---,0.00,VWS V14.01,2013-06-04 10:43:00,
2013-06-04 05:44:00,62.4,59.7,29.95,East,91,1.0,5.0,91,0.00,,---,0.00,VWS V14.01,2013-06-04 10:44:00,
2013-06-04 05:48:00,62.4,59.7,29.95,NE,56,0.0,3.0,91,0.00,,---,0.00,VWS V14.01,2013-06-04 10:48:00,
2013-06-04 05:49:00,62.3,59.6,29.95,NE,52,2.0,3.0,91,0.00,,---,0.00,VWS V14.01,2013-06-04 10:49:00,
2013-06-04 05:53:00,62.3,59.6,29.95,ENE,75,1.0,3.0,91,0.00,,---,0.00,VWS V14.01,2013-06-04 10:53:00,
2013-06-04 05:54:00,62.2,59.5,29.95,ENE,69,0.0,3.0,91,0.00,,---,0.00,VWS V14.01,2013-06-04 10:54:00,
2013-06-04 05:58:00,62.2,59.5,29.95,ENE,60,1.0,3.0,91,0.00,,---,0.00,VWS V14.01,2013-06-04 10:58:00,
2013-06-04 05:59:00,62.1,59.5,29.95,ENE,60,0.0,3.0,91,0.00,,---,0.00,VWS V14.01,2013-06-04 10:59:00,
2013-06-04 06:00:00,62.1,59.5,29.95,East,84,2.0,3.0,91,0.00,,---,0.00,VWS V14.01,2013-06-04 11:00:00,
2013-06-04 06:03:00,62.1,59.5,29.95,East,97,1.0,2.0,91,0.00,,---,0.00,VWS V14.01,2013-06-04 11:03:00,
2013-06-04 06:04:00,62.1,59.5,29.95,ENE,63,2.0,3.0,91,0.00,,---,0.00,VWS V14.01,2013-06-04 11:04:00,
2013-06-04 06:05:00,62.1,59.5,29.95,ENE,62,1.0,3.0,91,0.00,,---,0.00,VWS V14.01,2013-06-04 11:05:00,
2013-06-04 06:08:00,62.2,59.5,29.95,ENE,77,2.0,4.0,91,0.00,,---,0.00,VWS V14.01,2013-06-04 11:08:00,
2013-06-04 06:09:00,62.2,59.5,29.95,ENE,71,2.0,4.0,91,0.00,,---,0.00,VWS V14.01,2013-06-04 11:09:00,
2013-06-04 06:10:00,62.2,59.5,29.95,East,89,3.0,4.0,91,0.00,,---,0.00,VWS V14.01,2013-06-04 11:10:00,
2013-06-04 06:13:00,62.3,59.6,29.95,ENE,73,2.0,4.0,91,0.00,,---,0.00,VWS V14.01,2013-06-04 11:13:00,
2013-06-04 06:14:00,62.3,59.6,29.95,ENE,73,1.0,4.0,91,0.00,,---,0.00,VWS V14.01,2013-06-04 11:14:00,
2013-06-04 06:15:00,62.3,59.6,29.95,ENE,72,1.0,4.0,91,0.00,,---,0.00,VWS V14.01,2013-06-04 11:15:00,
2013-06-04 06:18:00,62.4,59.7,29.95,ENE,77,2.0,3.0,91,0.00,,---,0.00,VWS V14.01,2013-06-04 11:18:00,
2013-06-04 06:19:00,62.5,59.8,29.95,ENE,77,1.0,3.0,91,0.00,,---,0.00,VWS V14.01,2013-06-04 11:19:00,
2013-06-04 06:20:00,62.6,59.6,29.95,ENE,75,1.0,3.0,90,0.00,,---,0.00,VWS V14.01,2013-06-04 11:20:00,
2013-06-04 06:23:00,62.7,59.7,29.95,ENE,72,1.0,3.0,90,0.00,,---,0.00,VWS V14.01,2013-06-04 11:23:00,
2013-06-04 06:24:00,62.7,59.7,29.95,ENE,68,0.0,3.0,90,0.00,,---,0.00,VWS V14.01,2013-06-04 11:24:00,
2013-06-04 06:25:00,62.8,59.8,29.95,ENE,59,1.0,3.0,90,0.00,,---,0.00,VWS V14.01,2013-06-04 11:25:00,
2013-06-04 06:26:00,62.8,59.8,29.95,ENE,59,0.0,3.0,90,0.00,,---,0.00,VWS V14.01,2013-06-04 11:26:00,
2013-06-04 06:28:00,63.0,60.0,29.95,NE,50,1.0,4.0,90,0.00,,---,0.00,VWS V14.01,2013-06-04 11:28:00,
2013-06-04 06:29:00,63.0,60.0,29.95,ENE,77,2.0,4.0,90,0.00,,---,0.00,VWS V14.01,2013-06-04 11:29:00,
2013-06-04 06:30:00,63.1,60.1,29.95,NNE,22,0.0,4.0,90,0.00,,---,0.00,VWS V14.01,2013-06-04 11:30:00,
2013-06-04 06:31:00,63.1,60.1,29.95,NNE,22,1.0,4.0,90,0.00,,---,0.00,VWS V14.01,2013-06-04 11:31:00,
2013-06-04 06:33:00,63.1,60.1,29.95,East,82,1.0,2.0,90,0.00,,---,0.00,VWS V14.01,2013-06-04 11:33:00,
2013-06-04 06:34:00,63.1,59.8,29.95,East,82,0.0,2.0,89,0.00,,---,0.00,VWS V14.01,2013-06-04 11:34:00,
2013-06-04 06:36:00,63.1,59.8,29.95,ENE,72,0.0,3.0,89,0.00,,---,0.00,VWS V14.01,2013-06-04 11:36:00,
2013-06-04 06:38:00,63.2,59.9,29.95,ENE,67,1.0,3.0,89,0.00,,---,0.00,VWS V14.01,2013-06-04 11:38:00,
2013-06-04 06:39:00,63.2,59.9,29.95,North,3,1.0,3.0,89,0.00,,---,0.00,VWS V14.01,2013-06-04 11:39:00,
2013-06-04 06:41:00,63.2,59.9,29.96,ENE,63,3.0,3.0,89,0.00,,---,0.00,VWS V14.01,2013-06-04 11:41:00,
2013-06-04 06:42:00,63.2,59.9,29.96,North,10,1.0,3.0,89,0.00,,---,0.00,VWS V14.01,2013-06-04 11:42:00,
2013-06-04 06:43:00,63.3,60.0,29.96,North,356,0.0,3.0,89,0.00,,---,0.00,VWS V14.01,2013-06-04 11:43:00,
2013-06-04 06:44:00,63.3,60.0,29.96,North,356,1.0,3.0,89,0.00,,---,0.00,VWS V14.01,2013-06-04 11:44:00,
2013-06-04 06:46:00,63.3,60.0,29.96,East,101,1.0,1.0,89,0.00,,---,0.00,VWS V14.01,2013-06-04 11:46:00,
2013-06-04 06:47:00,63.3,60.0,29.96,East,99,0.0,1.0,89,0.00,,---,0.00,VWS V14.01,2013-06-04 11:47:00,
2013-06-04 06:48:00,63.4,59.8,29.96,ENE,67,0.0,7.0,88,0.00,,---,0.00,VWS V14.01,2013-06-04 11:48:00,
2013-06-04 06:49:00,63.4,59.8,29.96,ENE,65,0.0,7.0,88,0.00,,---,0.00,VWS V14.01,2013-06-04 11:49:00,
2013-06-04 06:51:00,63.4,60.1,29.96,ENE,59,0.0,7.0,89,0.00,,---,0.00,VWS V14.01,2013-06-04 11:51:00,
2013-06-04 06:52:00,63.5,60.2,29.96,ENE,59,1.0,7.0,89,0.00,,---,0.00,VWS V14.01,2013-06-04 11:52:00,
2013-06-04 06:54:00,63.6,60.0,29.96,ENE,67,1.0,7.0,88,0.00,,---,0.00,VWS V14.01,2013-06-04 11:54:00,
2013-06-04 06:56:00,63.7,60.1,29.96,East,79,1.0,7.0,88,0.00,,---,0.00,VWS V14.01,2013-06-04 11:56:00,
2013-06-04 06:57:00,63.7,60.1,29.96,East,79,0.0,7.0,88,0.00,,---,0.00,VWS V14.01,2013-06-04 11:57:00,
2013-06-04 06:59:00,63.8,60.2,29.96,ENE,74,1.0,7.0,88,0.00,,---,0.00,VWS V14.01,2013-06-04 11:59:00,
2013-06-04 07:02:00,63.9,60.3,29.97,ENE,69,0.0,1.0,88,0.00,,---,0.00,VWS V14.01,2013-06-04 12:02:00,
2013-06-04 07:04:00,63.9,60.3,29.97,North,353,2.0,4.0,88,0.00,,---,0.00,VWS V14.01,2013-06-04 12:04:00,
2013-06-04 07:05:00,63.9,60.3,29.97,East,93,5.0,5.0,88,0.00,,---,0.00,VWS V14.01,2013-06-04 12:05:00,
2013-06-04 07:07:00,64.0,60.4,29.97,North,11,1.0,5.0,88,0.00,,---,0.00,VWS V14.01,2013-06-04 12:07:00,
2013-06-04 07:09:00,64.0,60.4,29.97,SE,131,1.0,5.0,88,0.00,,---,0.00,VWS V14.01,2013-06-04 12:09:00,
2013-06-04 07:10:00,64.1,60.5,29.97,SE,131,0.0,5.0,88,0.00,,---,0.00,VWS V14.01,2013-06-04 12:10:00,
2013-06-04 07:12:00,64.2,60.6,29.97,SE,132,0.0,5.0,88,0.00,,---,0.00,VWS V14.01,2013-06-04 12:12:00,
2013-06-04 07:14:00,64.3,60.7,29.97,SE,132,1.0,5.0,88,0.00,,---,0.00,VWS V14.01,2013-06-04 12:14:00,
2013-06-04 07:16:00,64.4,60.8,29.97,SE,131,0.0,5.0,88,0.00,,---,0.00,VWS V14.01,2013-06-04 12:16:00,
2013-06-04 07:17:00,64.5,60.5,29.97,East,96,0.0,2.0,87,0.00,,---,0.00,VWS V14.01,2013-06-04 12:17:00,
2013-06-04 07:18:00,64.5,60.5,29.97,East,84,1.0,2.0,87,0.00,,---,0.00,VWS V14.01,2013-06-04 12:18:00,
2013-06-04 07:19:00,64.6,60.7,29.97,ENE,68,0.0,3.0,87,0.00,,---,0.00,VWS V14.01,2013-06-04 12:19:00,
2013-06-04 07:21:00,64.7,60.8,29.97,NNW,335,1.0,3.0,87,0.00,,---,0.00,VWS V14.01,2013-06-04 12:21:00,
2013-06-04 07:22:00,64.8,60.5,29.97,NE,39,1.0,4.0,86,0.00,,---,0.00,VWS V14.01,2013-06-04 12:22:00,
2013-06-04 07:23:00,64.8,60.5,29.97,ENE,66,3.0,4.0,86,0.00,,---,0.00,VWS V14.01,2013-06-04 12:23:00,
2013-06-04 07:24:00,64.8,60.5,29.97,ENE,73,3.0,4.0,86,0.00,,---,0.00,VWS V14.01,2013-06-04 12:24:00,
2013-06-04 07:26:00,64.9,60.6,29.97,ESE,105,1.0,4.0,86,0.00,,---,0.00,VWS V14.01,2013-06-04 12:26:00,
2013-06-04 07:27:00,65.0,60.7,29.98,North,352,1.0,4.0,86,0.00,,---,0.00,VWS V14.01,2013-06-04 12:27:00,
2013-06-04 07:28:00,65.0,60.7,29.98,NNW,346,1.0,4.0,86,0.00,,---,0.00,VWS V14.01,2013-06-04 12:28:00,
2013-06-04 07:29:00,65.0,60.7,29.98,NNW,346,0.0,4.0,86,0.00,,---,0.00,VWS V14.01,2013-06-04 12:29:00,
2013-06-04 07:32:00,65.2,60.9,29.97,NNW,346,1.0,1.0,86,0.00,,---,0.00,VWS V14.01,2013-06-04 12:32:00,
2013-06-04 07:33:00,65.3,60.7,29.98,ENE,67,2.0,4.0,85,0.00,,---,0.00,VWS V14.01,2013-06-04 12:33:00,
2013-06-04 07:35:00,65.4,60.8,29.98,ENE,73,2.0,6.0,85,0.00,,---,0.00,VWS V14.01,2013-06-04 12:35:00,
2013-06-04 07:37:00,65.5,60.9,29.97,NE,42,1.0,6.0,85,0.00,,---,0.00,VWS V14.01,2013-06-04 12:37:00,
2013-06-04 07:38:00,65.6,61.0,29.98,ENE,66,2.0,6.0,85,0.00,,---,0.00,VWS V14.01,2013-06-04 12:38:00,
2013-06-04 07:40:00,65.8,61.2,29.97,NE,37,2.0,6.0,85,0.00,,---,0.00,VWS V14.01,2013-06-04 12:40:00,
2013-06-04 07:42:00,65.9,60.9,29.97,North,349,1.0,6.0,84,0.00,,---,0.00,VWS V14.01,2013-06-04 12:42:00,
2013-06-04 07:43:00,66.0,61.0,29.97,NE,51,1.0,6.0,84,0.00,,---,0.00,VWS V14.01,2013-06-04 12:43:00,
2013-06-04 07:45:00,66.0,61.0,29.97,NW,326,0.0,6.0,84,0.00,,---,0.00,VWS V14.01,2013-06-04 12:45:00,
2013-06-04 07:47:00,66.2,61.2,29.98,North,11,1.0,1.0,84,0.00,,---,0.00,VWS V14.01,2013-06-04 12:47:00,
2013-06-04 07:48:00,66.2,61.2,29.98,North,10,0.0,1.0,84,0.00,,---,0.00,VWS V14.01,2013-06-04 12:48:00,
2013-06-04 07:50:00,66.4,61.4,29.98,North,349,3.0,3.0,84,0.00,,---,0.00,VWS V14.01,2013-06-04 12:50:00,
2013-06-04 07:52:00,66.4,61.1,29.98,North,352,1.0,3.0,83,0.00,,---,0.00,VWS V14.01,2013-06-04 12:52:00,
2013-06-04 07:53:00,66.4,61.1,29.98,North,352,1.0,3.0,83,0.00,,---,0.00,VWS V14.01,2013-06-04 12:53:00,
2013-06-04 07:55:00,66.5,61.2,29.98,ENE,76,1.0,3.0,83,0.00,,---,0.00,VWS V14.01,2013-06-04 12:55:00,
2013-06-04 07:58:00,66.5,61.2,29.98,NE,48,2.0,3.0,83,0.00,,---,0.00,VWS V14.01,2013-06-04 12:58:00,
2013-06-04 07:59:00,66.6,61.3,29.98,NE,44,1.0,3.0,83,0.00,,---,0.00,VWS V14.01,2013-06-04 12:59:00,
2013-06-04 08:00:00,66.6,61.3,29.98,NNE,18,1.0,3.0,83,0.00,,---,0.00,VWS V14.01,2013-06-04 13:00:00,
2013-06-04 08:03:00,66.6,60.9,29.98,East,82,3.0,4.0,82,0.00,,---,0.00,VWS V14.01,2013-06-04 13:03:00,
2013-06-04 08:04:00,66.6,61.3,29.98,North,6,0.0,4.0,83,0.00,,---,0.00,VWS V14.01,2013-06-04 13:04:00,
2013-06-04 08:05:00,66.7,61.4,29.98,ENE,77,3.0,4.0,83,0.00,,---,0.00,VWS V14.01,2013-06-04 13:05:00,
2013-06-04 08:08:00,66.8,61.5,29.98,North,6,1.0,4.0,83,0.00,,---,0.00,VWS V14.01,2013-06-04 13:08:00,
2013-06-04 08:09:00,66.9,61.6,29.98,ENE,62,3.0,4.0,83,0.00,,---,0.00,VWS V14.01,2013-06-04 13:09:00,
2013-06-04 08:11:00,66.9,61.2,29.98,ENE,78,1.0,4.0,82,0.00,,---,0.00,VWS V14.01,2013-06-04 13:11:00,
2013-06-04 08:13:00,67.0,61.3,29.98,ENE,65,1.0,4.0,82,0.00,,---,0.00,VWS V14.01,2013-06-04 13:13:00,
2013-06-04 08:14:00,67.1,61.8,29.98,ENE,63,0.0,4.0,83,0.00,,---,0.00,VWS V14.01,2013-06-04 13:14:00,
2013-06-04 08:16:00,67.2,61.9,29.98,NNE,25,1.0,1.0,83,0.00,,---,0.00,VWS V14.01,2013-06-04 13:16:00,
2013-06-04 08:18:00,67.5,62.2,29.99,ENE,60,3.0,3.0,83,0.00,,---,0.00,VWS V14.01,2013-06-04 13:18:00,
2013-06-04 08:19:00,67.7,62.0,29.98,ENE,66,0.0,3.0,82,0.00,,---,0.00,VWS V14.01,2013-06-04 13:19:00,
2013-06-04 08:21:00,67.8,62.1,29.99,NNE,14,1.0,3.0,82,0.00,,---,0.00,VWS V14.01,2013-06-04 13:21:00,
2013-06-04 08:23:00,68.1,62.1,29.99,NNE,28,1.0,3.0,81,0.00,,---,0.00,VWS V14.01,2013-06-04 13:23:00,
2013-06-04 08:24:00,68.2,62.2,29.99,ENE,63,2.0,3.0,81,0.00,,---,0.00,VWS V14.01,2013-06-04 13:24:00,
2013-06-04 08:25:00,68.3,62.2,29.99,North,8,1.0,3.0,81,0.00,,---,0.00,VWS V14.01,2013-06-04 13:25:00,
2013-06-04 08:26:00,68.4,62.0,29.99,ENE,60,3.0,3.0,80,0.00,,---,0.00,VWS V14.01,2013-06-04 13:26:00,
2013-06-04 08:28:00,68.5,62.1,29.99,ENE,67,1.0,4.0,80,0.00,,---,0.00,VWS V14.01,2013-06-04 13:28:00,
2013-06-04 08:29:00,68.5,62.1,29.99,ENE,67,0.0,4.0,80,0.00,,---,0.00,VWS V14.01,2013-06-04 13:29:00,
2013-06-04 08:30:00,68.5,62.1,29.99,ENE,67,0.0,4.0,80,0.00,,---,0.00,VWS V14.01,2013-06-04 13:30:00,
2013-06-04 08:31:00,68.6,62.5,29.99,NE,46,0.0,3.0,81,0.00,,---,0.00,VWS V14.01,2013-06-04 13:31:00,
2013-06-04 08:33:00,68.8,62.4,29.99,North,352,0.0,3.0,80,0.00,,---,0.00,VWS V14.01,2013-06-04 13:33:00,
2013-06-04 08:34:00,68.9,62.5,29.99,ENE,70,2.0,5.0,80,0.00,,---,0.00,VWS V14.01,2013-06-04 13:34:00,
2013-06-04 08:35:00,68.9,62.5,29.99,ENE,70,1.0,5.0,80,0.00,,---,0.00,VWS V14.01,2013-06-04 13:35:00,
2013-06-04 08:36:00,69.0,62.6,29.99,WNW,296,1.0,5.0,80,0.00,,---,0.00,VWS V14.01,2013-06-04 13:36:00,
2013-06-04 08:38:00,69.2,62.4,29.99,NW,306,1.0,5.0,79,0.00,,---,0.00,VWS V14.01,2013-06-04 13:38:00,
2013-06-04 08:39:00,69.2,62.8,29.99,NNW,335,1.0,5.0,80,0.00,,---,0.00,VWS V14.01,2013-06-04 13:39:00,
2013-06-04 08:40:00,69.2,62.4,29.99,ENE,65,2.0,5.0,79,0.00,,---,0.00,VWS V14.01,2013-06-04 13:40:00,
2013-06-04 08:41:00,69.3,62.5,29.99,NNW,347,1.0,5.0,79,0.00,,---,0.00,VWS V14.01,2013-06-04 13:41:00,
2013-06-04 08:44:00,69.4,62.6,29.99,NNW,347,0.0,5.0,79,0.00,,---,0.00,VWS V14.01,2013-06-04 13:44:00,
2013-06-04 08:45:00,69.6,63.2,29.99,NNW,346,0.0,5.0,80,0.00,,---,0.00,VWS V14.01,2013-06-04 13:45:00,
2013-06-04 08:47:00,69.7,63.3,29.99,NNW,347,0.0,0.0,80,0.00,,---,0.00,VWS V14.01,2013-06-04 13:47:00,
2013-06-04 08:49:00,69.9,63.1,29.99,WNW,292,0.0,4.0,79,0.00,,---,0.00,VWS V14.01,2013-06-04 13:49:00,
2013-06-04 08:50:00,70.0,63.2,29.99,WNW,292,0.0,4.0,79,0.00,,---,0.00,VWS V14.01,2013-06-04 13:50:00,
2013-06-04 08:52:00,70.1,63.3,29.99,NNW,344,0.0,4.0,79,0.00,,---,0.00,VWS V14.01,2013-06-04 13:52:00,
2013-06-04 08:54:00,70.4,63.6,29.99,NNE,27,1.0,4.0,79,0.00,,---,0.00,VWS V14.01,2013-06-04 13:54:00,
2013-06-04 08:55:00,70.5,63.3,29.99,NE,38,2.0,4.0,78,0.00,,---,0.00,VWS V14.01,2013-06-04 13:55:00,
2013-06-04 08:57:00,70.6,63.0,29.99,NE,48,1.0,5.0,77,0.00,,---,0.00,VWS V14.01,2013-06-04 13:57:00,
2013-06-04 08:59:00,70.7,63.5,29.99,NE,44,0.0,5.0,78,0.00,,---,0.00,VWS V14.01,2013-06-04 13:59:00,
2013-06-04 09:00:00,70.7,63.5,29.99,North,11,1.0,5.0,78,0.00,,---,0.00,VWS V14.01,2013-06-04 14:00:00,
2013-06-04 09:02:00,70.8,63.6,29.99,North,11,0.0,0.0,78,0.00,,---,0.00,VWS V14.01,2013-06-04 14:02:00,
2013-06-04 09:04:00,71.1,63.5,29.99,North,357,0.0,4.0,77,0.00,,---,0.00,VWS V14.01,2013-06-04 14:04:00,
2013-06-04 09:05:00,71.3,63.7,29.99,North,356,1.0,4.0,77,0.00,,---,0.00,VWS V14.01,2013-06-04 14:05:00,
2013-06-04 09:07:00,71.6,63.6,29.99,North,6,2.0,4.0,76,0.00,,---,0.00,VWS V14.01,2013-06-04 14:07:00,
2013-06-04 09:09:00,71.9,63.9,29.99,North,356,1.0,4.0,76,0.00,,---,0.00,VWS V14.01,2013-06-04 14:09:00,
2013-06-04 09:10:00,72.1,64.1,29.99,North,356,0.0,4.0,76,0.00,,---,0.00,VWS V14.01,2013-06-04 14:10:00,
2013-06-04 09:11:00,72.1,64.1,29.99,North,356,0.0,4.0,76,0.00,,---,0.00,VWS V14.01,2013-06-04 14:11:00,
2013-06-04 09:12:00,72.4,64.0,29.99,NW,312,0.0,4.0,75,0.00,,---,0.00,VWS V14.01,2013-06-04 14:12:00,
2013-06-04 09:14:00,72.8,64.0,29.99,NW,307,0.0,4.0,74,0.00,,---,0.00,VWS V14.01,2013-06-04 14:14:00,
2013-06-04 09:15:00,72.9,64.1,29.99,SSE,164,1.0,5.0,74,0.00,,---,0.00,VWS V14.01,2013-06-04 14:15:00,
2013-06-04 09:16:00,72.9,64.1,29.99,SSE,165,1.0,2.0,74,0.00,,---,0.00,VWS V14.01,2013-06-04 14:16:00,
2013-06-04 09:17:00,72.9,64.1,29.99,West,264,0.0,2.0,74,0.00,,---,0.00,VWS V14.01,2013-06-04 14:17:00,
2013-06-04 09:20:00,72.9,64.1,29.99,WNW,282,1.0,2.0,74,0.00,,---,0.00,VWS V14.01,2013-06-04 14:20:00,
2013-06-04 09:21:00,72.8,63.7,29.99,WNW,285,1.0,2.0,73,0.00,,---,0.00,VWS V14.01,2013-06-04 14:21:00,
2013-06-04 09:22:00,72.7,63.9,29.99,WNW,285,0.0,2.0,74,0.00,,---,0.00,VWS V14.01,2013-06-04 14:22:00,
2013-06-04 09:25:00,72.6,63.8,29.99,NE,34,1.0,2.0,74,0.00,,---,0.00,VWS V14.01,2013-06-04 14:25:00,
2013-06-04 09:26:00,72.6,63.8,29.99,NE,49,0.0,3.0,74,0.00,,---,0.00,VWS V14.01,2013-06-04 14:26:00,
2013-06-04 09:27:00,72.5,63.8,29.98,NNW,332,1.0,3.0,74,0.00,,---,0.00,VWS V14.01,2013-06-04 14:27:00,
2013-06-04 09:30:00,72.6,64.2,29.98,SSE,150,2.0,4.0,75,0.00,,---,0.00,VWS V14.01,2013-06-04 14:30:00,
2013-06-04 09:32:00,72.7,64.3,29.99,SSW,210,1.0,2.0,75,0.00,,---,0.00,VWS V14.01,2013-06-04 14:32:00,
2013-06-04 09:35:00,73.1,64.7,29.99,NNW,346,1.0,3.0,75,0.00,,---,0.00,VWS V14.01,2013-06-04 14:35:00,
2013-06-04 09:36:00,73.2,64.8,29.99,NNW,346,1.0,3.0,75,0.00,,---,0.00,VWS V14.01,2013-06-04 14:36:00,
2013-06-04 09:37:00,73.3,64.9,29.99,NNE,20,1.0,3.0,75,0.00,,---,0.00,VWS V14.01,2013-06-04 14:37:00,
2013-06-04 09:40:00,73.8,65.0,29.99,NW,323,0.0,3.0,74,0.00,,---,0.00,VWS V14.01,2013-06-04 14:40:00,
2013-06-04 09:41:00,73.9,65.1,29.99,WSW,240,2.0,3.0,74,0.00,,---,0.00,VWS V14.01,2013-06-04 14:41:00,
2013-06-04 09:42:00,74.0,64.4,29.99,WSW,256,0.0,3.0,72,0.00,,---,0.00,VWS V14.01,2013-06-04 14:42:00,
2013-06-04 09:45:00,74.5,64.9,29.99,SW,236,0.0,3.0,72,0.00,,---,0.00,VWS V14.01,2013-06-04 14:45:00,
2013-06-04 09:46:00,74.6,65.0,29.98,SW,236,1.0,1.0,72,0.00,,---,0.00,VWS V14.01,2013-06-04 14:46:00,
2013-06-04 09:47:00,74.7,65.1,29.98,WSW,250,1.0,3.0,72,0.00,,---,0.00,VWS V14.01,2013-06-04 14:47:00,
2013-06-04 09:50:00,75.1,65.9,29.98,WSW,245,1.0,3.0,73,0.00,,---,0.00,VWS V14.01,2013-06-04 14:50:00,
2013-06-04 09:52:00,75.3,65.7,29.98,WSW,247,2.0,3.0,72,0.00,,---,0.00,VWS V14.01,2013-06-04 14:52:00,
2013-06-04 09:53:00,75.4,64.9,29.98,WSW,253,1.0,3.0,70,0.00,,---,0.00,VWS V14.01,2013-06-04 14:53:00,
2013-06-04 09:55:00,75.6,65.1,29.98,WSW,242,2.0,3.0,70,0.00,,---,0.00,VWS V14.01,2013-06-04 14:55:00,
2013-06-04 09:57:00,75.6,65.5,29.98,WSW,242,0.0,3.0,71,0.00,,---,0.00,VWS V14.01,2013-06-04 14:57:00,
2013-06-04 09:58:00,75.7,66.0,29.98,WSW,251,1.0,3.0,72,0.00,,---,0.00,VWS V14.01,2013-06-04 14:58:00,
2013-06-04 10:01:00,76.0,65.9,29.98,ENE,66,0.0,3.0,71,0.00,,---,0.00,VWS V14.01,2013-06-04 15:01:00,
2013-06-04 10:02:00,76.1,66.0,29.98,NNW,344,2.0,3.0,71,0.00,,---,0.00,VWS V14.01,2013-06-04 15:02:00,
2013-06-04 10:03:00,76.2,65.7,29.98,WNW,293,0.0,3.0,70,0.00,,---,0.00,VWS V14.01,2013-06-04 15:03:00,
2013-06-04 10:07:00,76.6,65.3,29.98,SW,235,0.0,3.0,68,0.00,,---,0.00,VWS V14.01,2013-06-04 15:07:00,
2013-06-04 10:08:00,76.7,65.8,29.98,NW,305,2.0,3.0,69,0.00,,---,0.00,VWS V14.01,2013-06-04 15:08:00,
2013-06-04 10:12:00,77.0,66.5,29.98,West,265,1.0,3.0,70,0.00,,---,0.00,VWS V14.01,2013-06-04 15:12:00,
2013-06-04 10:13:00,77.0,65.6,29.98,WNW,295,1.0,3.0,68,0.00,,---,0.00,VWS V14.01,2013-06-04 15:13:00,
2013-06-04 10:17:00,77.4,65.6,29.98,WSW,248,0.0,2.0,67,0.00,,---,0.00,VWS V14.01,2013-06-04 15:17:00,
2013-06-04 10:18:00,77.5,66.1,29.99,WSW,247,0.0,2.0,68,0.00,,---,0.00,VWS V14.01,2013-06-04 15:18:00,
2013-06-04 10:22:00,78.0,66.2,29.99,NW,318,0.0,2.0,67,0.00,,---,0.00,VWS V14.01,2013-06-04 15:22:00,
2013-06-04 10:23:00,78.1,66.3,29.99,NW,314,0.0,2.0,67,0.00,,---,0.00,VWS V14.01,2013-06-04 15:23:00,
2013-06-04 10:24:00,78.2,65.9,29.99,NW,314,0.0,2.0,66,0.00,,---,0.00,VWS V14.01,2013-06-04 15:24:00,
2013-06-04 10:27:00,78.6,66.3,29.99,NW,318,1.0,2.0,66,0.00,,---,0.00,VWS V14.01,2013-06-04 15:27:00,
2013-06-04 10:28:00,78.6,66.7,29.99,NW,318,0.0,2.0,67,0.00,,---,0.00,VWS V14.01,2013-06-04 15:28:00,
2013-06-04 10:29:00,78.7,66.0,29.99,ENE,62,1.0,2.0,65,0.00,,---,0.00,VWS V14.01,2013-06-04 15:29:00,
2013-06-04 10:32:00,78.5,65.8,29.99,WSW,248,1.0,2.0,65,0.00,,---,0.00,VWS V14.01,2013-06-04 15:32:00,
2013-06-04 10:33:00,78.6,65.9,29.99,SW,228,2.0,2.0,65,0.00,,---,0.00,VWS V14.01,2013-06-04 15:33:00,
2013-06-04 10:34:00,78.6,66.3,29.99,NW,309,1.0,2.0,66,0.00,,---,0.00,VWS V14.01,2013-06-04 15:34:00,
2013-06-04 10:37:00,79.0,65.8,29.98,WSW,256,1.0,2.0,64,0.00,,---,0.00,VWS V14.01,2013-06-04 15:37:00,
2013-06-04 10:38:00,79.2,66.0,29.98,WSW,257,0.0,2.0,64,0.00,,---,0.00,VWS V14.01,2013-06-04 15:38:00,
2013-06-04 10:39:00,79.2,66.0,29.98,WSW,256,0.0,2.0,64,0.00,,---,0.00,VWS V14.01,2013-06-04 15:39:00,
2013-06-04 10:40:00,79.4,65.7,29.98,WSW,238,2.0,2.0,63,0.00,,---,0.00,VWS V14.01,2013-06-04 15:40:00,
2013-06-04 10:43:00,79.4,64.8,29.98,WSW,254,2.0,3.0,61,0.00,,---,0.00,VWS V14.01,2013-06-04 15:43:00,
2013-06-04 10:44:00,79.5,64.9,29.98,WSW,240,0.0,3.0,61,0.00,,---,0.00,VWS V14.01,2013-06-04 15:44:00,
2013-06-04 10:45:00,79.6,65.9,29.99,SW,235,0.0,3.0,63,0.00,,---,0.00,VWS V14.01,2013-06-04 15:45:00,
2013-06-04 10:48:00,79.8,67.0,29.98,NNW,342,3.0,3.0,65,0.00,,---,0.00,VWS V14.01,2013-06-04 15:48:00,
2013-06-04 10:49:00,79.9,66.7,29.98,NNW,345,2.0,3.0,64,0.00,,---,0.00,VWS V14.01,2013-06-04 15:49:00,
2013-06-04 10:51:00,79.9,65.7,29.98,ENE,67,1.0,3.0,62,0.00,,---,0.00,VWS V14.01,2013-06-04 15:51:00,
2013-06-04 10:53:00,79.9,66.7,29.98,ENE,67,0.0,3.0,64,0.00,,---,0.00,VWS V14.01,2013-06-04 15:53:00,
2013-06-04 10:54:00,79.9,67.1,29.98,ENE,67,0.0,3.0,65,0.00,,---,0.00,VWS V14.01,2013-06-04 15:54:00,
2013-06-04 10:56:00,80.0,66.7,29.98,North,360,3.0,5.0,64,0.00,,---,0.00,VWS V14.01,2013-06-04 15:56:00,
2013-06-04 10:58:00,79.9,65.3,29.98,NNE,21,1.0,5.0,61,0.00,,---,0.00,VWS V14.01,2013-06-04 15:58:00,
2013-06-04 10:59:00,79.8,65.2,29.97,NE,42,1.0,5.0,61,0.00,,---,0.00,VWS V14.01,2013-06-04 15:59:00,
2013-06-04 11:01:00,79.8,65.6,29.97,NNW,346,2.0,2.0,62,0.00,,---,0.00,VWS V14.01,2013-06-04 16:01:00,
2013-06-04 11:03:00,79.8,64.7,29.98,NE,34,2.0,4.0,60,0.00,,---,0.00,VWS V14.01,2013-06-04 16:03:00,
2013-06-04 11:04:00,79.8,64.2,29.98,NNW,343,1.0,4.0,59,0.00,,---,0.00,VWS V14.01,2013-06-04 16:04:00,
2013-06-04 11:06:00,79.7,64.6,29.98,NNW,344,0.0,4.0,60,0.00,,---,0.00,VWS V14.01,2013-06-04 16:06:00,
2013-06-04 11:08:00,79.7,65.5,29.98,ENE,69,4.0,5.0,62,0.00,,---,0.00,VWS V14.01,2013-06-04 16:08:00,
2013-06-04 11:09:00,79.8,64.7,29.98,North,4,2.0,5.0,60,0.00,,---,0.00,VWS V14.01,2013-06-04 16:09:00,
2013-06-04 11:12:00,79.8,64.7,29.98,WSW,258,1.0,5.0,60,0.00,,---,0.00,VWS V14.01,2013-06-04 16:12:00,
2013-06-04 11:13:00,80.1,65.9,29.98,WSW,241,1.0,5.0,62,0.00,,---,0.00,VWS V14.01,2013-06-04 16:13:00,
2013-06-04 11:14:00,80.2,64.6,29.98,NE,37,1.0,5.0,59,0.00,,---,0.00,VWS V14.01,2013-06-04 16:14:00,
2013-06-04 11:15:00,80.2,64.1,29.97,North,350,2.0,5.0,58,0.00,,---,0.00,VWS V14.01,2013-06-04 16:15:00,
2013-06-04 11:17:00,80.2,64.6,29.97,NNW,347,0.0,2.0,59,0.00,,---,0.00,VWS V14.01,2013-06-04 16:17:00,
2013-06-04 11:18:00,80.3,64.7,29.97,NW,304,1.0,3.0,59,0.00,,---,0.00,VWS V14.01,2013-06-04 16:18:00,
2013-06-04 11:19:00,80.4,64.3,29.97,NE,41,2.0,5.0,58,0.00,,---,0.00,VWS V14.01,2013-06-04 16:19:00,
2013-06-04 11:21:00,80.4,63.8,29.97,NNW,343,2.0,5.0,57,0.00,,---,0.00,VWS V14.01,2013-06-04 16:21:00,
2013-06-04 11:22:00,80.4,64.3,29.97,NE,34,2.0,5.0,58,0.00,,---,0.00,VWS V14.01,2013-06-04 16:22:00,
2013-06-04 11:24:00,80.4,64.3,29.97,North,352,1.0,5.0,58,0.00,,---,0.00,VWS V14.01,2013-06-04 16:24:00,
2013-06-04 11:26:00,80.4,63.8,29.97,North,353,2.0,5.0,57,0.00,,---,0.00,VWS V14.01,2013-06-04 16:26:00,
2013-06-04 11:28:00,80.4,64.3,29.97,North,349,1.0,5.0,58,0.00,,---,0.00,VWS V14.01,2013-06-04 16:28:00,
2013-06-04 11:29:00,80.4,64.8,29.97,North,349,1.0,5.0,59,0.00,,---,0.00,VWS V14.01,2013-06-04 16:29:00,
2013-06-04 11:30:00,80.5,63.4,29.97,ENE,74,5.0,5.0,56,0.00,,---,0.00,VWS V14.01,2013-06-04 16:30:00,
2013-06-04 11:31:00,80.4,62.8,29.97,NNW,347,2.0,2.0,55,0.00,,---,0.00,VWS V14.01,2013-06-04 16:31:00,
2013-06-04 11:33:00,80.4,61.7,29.98,NNE,14,0.0,2.0,53,0.00,,---,0.00,VWS V14.01,2013-06-04 16:33:00,
2013-06-04 11:34:00,80.4,62.2,29.97,NNW,329,1.0,2.0,54,0.00,,---,0.00,VWS V14.01,2013-06-04 16:34:00,
2013-06-04 11:35:00,80.4,62.8,29.98,NW,316,1.0,2.0,55,0.00,,---,0.00,VWS V14.01,2013-06-04 16:35:00,
2013-06-04 11:37:00,80.6,63.0,29.97,NW,317,2.0,2.0,55,0.00,,---,0.00,VWS V14.01,2013-06-04 16:37:00,
2013-06-04 11:38:00,80.7,62.5,29.97,NW,318,1.0,2.0,54,0.00,,---,0.00,VWS V14.01,2013-06-04 16:38:00,
2013-06-04 11:39:00,80.8,63.7,29.97,North,359,1.0,2.0,56,0.00,,---,0.00,VWS V14.01,2013-06-04 16:39:00,
2013-06-04 11:40:00,80.9,62.7,29.98,North,359,1.0,2.0,54,0.00,,---,0.00,VWS V14.01,2013-06-04 16:40:00,
2013-06-04 11:42:00,81.0,64.3,29.98,North,6,1.0,2.0,57,0.00,,---,0.00,VWS V14.01,2013-06-04 16:42:00,
2013-06-04 11:43:00,81.0,63.3,29.98,ENE,74,3.0,4.0,55,0.00,,---,0.00,VWS V14.01,2013-06-04 16:43:00,
2013-06-04 11:45:00,80.9,62.2,29.98,WNW,289,0.0,4.0,53,0.00,,---,0.00,VWS V14.01,2013-06-04 16:45:00,
2013-06-04 11:47:00,80.8,63.7,29.98,North,350,1.0,1.0,56,0.00,,---,0.00,VWS V14.01,2013-06-04 16:47:00,
2013-06-04 11:48:00,80.9,63.8,29.98,NW,304,1.0,2.0,56,0.00,,---,0.00,VWS V14.01,2013-06-04 16:48:00,
2013-06-04 11:50:00,81.0,63.8,29.98,North,8,2.0,2.0,56,0.00,,---,0.00,VWS V14.01,2013-06-04 16:50:00,
2013-06-04 11:52:00,81.3,64.6,29.98,West,278,1.0,2.0,57,0.00,,---,0.00,VWS V14.01,2013-06-04 16:52:00,
2013-06-04 11:53:00,81.5,63.8,29.98,West,267,2.0,3.0,55,0.00,,---,0.00,VWS V14.01,2013-06-04 16:53:00,
2013-06-04 11:55:00,81.8,63.0,29.98,WSW,248,2.0,3.0,53,0.00,,---,0.00,VWS V14.01,2013-06-04 16:55:00,
2013-06-04 11:57:00,82.0,64.8,29.98,WSW,257,1.0,3.0,56,0.00,,---,0.00,VWS V14.01,2013-06-04 16:57:00,
2013-06-04 11:58:00,82.3,65.6,29.98,West,271,0.0,3.0,57,0.00,,---,0.00,VWS V14.01,2013-06-04 16:58:00,
2013-06-04 12:00:00,82.5,64.2,29.98,East,90,1.0,3.0,54,0.00,,---,0.00,VWS V14.01,2013-06-04 17:00:00,
2013-06-04 12:02:00,82.5,64.7,29.98,East,89,1.0,1.0,55,0.00,,---,0.00,VWS V14.01,2013-06-04 17:02:00,
2013-06-04 12:03:00,82.5,65.2,29.98,ESE,105,1.0,1.0,56,0.00,,---,0.00,VWS V14.01,2013-06-04 17:03:00,
2013-06-04 12:05:00,82.6,64.3,29.98,ESE,108,0.0,1.0,54,0.00,,---,0.00,VWS V14.01,2013-06-04 17:05:00,
2013-06-04 12:07:00,82.7,64.9,29.98,ESE,108,0.0,1.0,55,0.00,,---,0.00,VWS V14.01,2013-06-04 17:07:00,
2013-06-04 12:08:00,82.6,64.3,29.98,East,81,2.0,4.0,54,0.00,,---,0.00,VWS V14.01,2013-06-04 17:08:00,
2013-06-04 12:10:00,82.3,63.5,29.98,North,354,1.0,4.0,53,0.00,,---,0.00,VWS V14.01,2013-06-04 17:10:00,
2013-06-04 12:11:00,82.2,63.9,29.98,North,353,1.0,4.0,54,0.00,,---,0.00,VWS V14.01,2013-06-04 17:11:00,
2013-06-04 12:13:00,81.9,63.6,29.98,East,90,2.0,4.0,54,0.00,,---,0.00,VWS V14.01,2013-06-04 17:13:00,
2013-06-04 12:15:00,81.6,63.4,29.98,NE,35,0.0,4.0,54,0.00,,---,0.00,VWS V14.01,2013-06-04 17:15:00,
2013-06-04 12:16:00,81.6,63.9,29.98,NE,35,0.0,4.0,55,0.00,,---,0.00,VWS V14.01,2013-06-04 17:16:00,
2013-06-04 12:18:00,81.6,64.4,29.98,SSW,207,0.0,1.0,56,0.00,,---,0.00,VWS V14.01,2013-06-04 17:18:00,
2013-06-04 12:20:00,81.9,64.7,29.98,SSW,207,0.0,1.0,56,0.00,,---,0.00,VWS V14.01,2013-06-04 17:20:00,
2013-06-04 12:21:00,81.9,65.2,29.98,SSW,207,0.0,1.0,57,0.00,,---,0.00,VWS V14.01,2013-06-04 17:21:00,
2013-06-04 12:22:00,82.0,65.3,29.98,SSW,203,0.0,1.0,57,0.00,,---,0.00,VWS V14.01,2013-06-04 17:22:00,
2013-06-04 12:23:00,82.2,64.4,29.98,WSW,258,0.0,2.0,55,0.00,,---,0.00,VWS V14.01,2013-06-04 17:23:00,
2013-06-04 12:26:00,82.5,64.2,29.98,WSW,257,0.0,2.0,54,0.00,,---,0.00,VWS V14.01,2013-06-04 17:26:00,
2013-06-04 12:27:00,82.7,64.9,29.98,WSW,258,0.0,2.0,55,0.00,,---,0.00,VWS V14.01,2013-06-04 17:27:00,
2013-06-04 12:28:00,82.9,64.6,29.98,WSW,257,0.0,2.0,54,0.00,,---,0.00,VWS V14.01,2013-06-04 17:28:00,
2013-06-04 12:31:00,82.9,62.9,29.98,West,278,5.0,7.0,51,0.00,,---,0.00,VWS V14.01,2013-06-04 17:31:00,
2013-06-04 12:32:00,82.7,62.8,29.98,WNW,297,4.0,7.0,51,0.00,,---,0.00,VWS V14.01,2013-06-04 17:32:00,
2013-06-04 12:33:00,82.2,63.4,29.98,WNW,288,0.0,7.0,53,0.00,,---,0.00,VWS V14.01,2013-06-04 17:33:00,
2013-06-04 12:34:00,82.2,63.4,29.98,WNW,289,0.0,7.0,53,0.00,,---,0.00,VWS V14.01,2013-06-04 17:34:00,
2013-06-04 12:36:00,81.9,64.7,29.98,WNW,288,0.0,7.0,56,0.00,,---,0.00,VWS V14.01,2013-06-04 17:36:00,
2013-06-04 12:37:00,81.8,64.6,29.98,WNW,288,0.0,7.0,56,0.00,,---,0.00,VWS V14.01,2013-06-04 17:37:00,
2013-06-04 12:38:00,81.8,64.6,29.98,WNW,288,0.0,7.0,56,0.00,,---,0.00,VWS V14.01,2013-06-04 17:38:00,
2013-06-04 12:39:00,81.8,64.1,29.98,WNW,289,0.0,7.0,55,0.00,,---,0.00,VWS V14.01,2013-06-04 17:39:00,
2013-06-04 12:42:00,81.9,63.6,29.98,West,262,0.0,7.0,54,0.00,,---,0.00,VWS V14.01,2013-06-04 17:42:00,
2013-06-04 12:43:00,82.0,63.7,29.98,West,262,0.0,7.0,54,0.00,,---,0.00,VWS V14.01,2013-06-04 17:43:00,
2013-06-04 12:44:00,82.0,64.3,29.98,West,262,0.0,7.0,55,0.00,,---,0.00,VWS V14.01,2013-06-04 17:44:00,
2013-06-04 12:47:00,82.3,64.0,29.98,West,262,0.0,0.0,54,0.00,,---,0.00,VWS V14.01,2013-06-04 17:47:00,
2013-06-04 12:49:00,82.4,63.6,29.97,WSW,237,0.0,3.0,53,0.00,,---,0.00,VWS V14.01,2013-06-04 17:49:00,
2013-06-04 12:52:00,82.7,64.9,29.97,NNW,335,0.0,3.0,55,0.00,,---,0.00,VWS V14.01,2013-06-04 17:52:00,
2013-06-04 12:54:00,82.8,66.0,29.97,WNW,285,0.0,3.0,57,0.00,,---,0.00,VWS V14.01,2013-06-04 17:54:00,
2013-06-04 12:57:00,83.1,64.2,29.97,West,264,2.0,3.0,53,0.00,,---,0.00,VWS V14.01,2013-06-04 17:57:00,
2013-06-04 12:59:00,83.1,64.2,29.97,West,280,1.0,3.0,53,0.00,,---,0.00,VWS V14.01,2013-06-04 17:59:00,
2013-06-04 13:02:00,83.3,64.4,29.97,West,273,1.0,2.0,53,0.00,,---,0.00,VWS V14.01,2013-06-04 18:02:00,
2013-06-04 13:04:00,83.5,64.6,29.97,West,259,0.0,2.0,53,0.00,,---,0.00,VWS V14.01,2013-06-04 18:04:00,
2013-06-04 13:07:00,83.8,64.3,29.97,WSW,244,2.0,5.0,52,0.00,,---,0.00,VWS V14.01,2013-06-04 18:07:00,
2013-06-04 13:08:00,83.8,64.3,29.97,WSW,247,2.0,5.0,52,0.00,,---,0.00,VWS V14.01,2013-06-04 18:08:00,
2013-06-04 13:09:00,83.9,64.4,29.97,WSW,249,1.0,5.0,52,0.00,,---,0.00,VWS V14.01,2013-06-04 18:09:00,
2013-06-04 13:12:00,84.2,64.1,29.97,WSW,250,1.0,5.0,51,0.00,,---,0.00,VWS V14.01,2013-06-04 18:12:00,
2013-06-04 13:13:00,84.2,63.6,29.97,WSW,251,0.0,5.0,50,0.00,,---,0.00,VWS V14.01,2013-06-04 18:13:00,
2013-06-04 13:14:00,84.4,63.8,29.97,WSW,250,1.0,5.0,50,0.00,,---,0.00,VWS V14.01,2013-06-04 18:14:00,
2013-06-04 13:15:00,84.5,65.0,29.97,WSW,251,0.0,5.0,52,0.00,,---,0.00,VWS V14.01,2013-06-04 18:15:00,
2013-06-04 13:17:00,84.7,65.7,29.97,WNW,299,4.0,4.0,53,0.00,,---,0.00,VWS V14.01,2013-06-04 18:17:00,
2013-06-04 13:18:00,84.7,64.6,29.97,West,279,5.0,5.0,51,0.00,,---,0.00,VWS V14.01,2013-06-04 18:18:00,
2013-06-04 13:19:00,84.5,63.8,29.97,WNW,285,3.0,5.0,50,0.00,,---,0.00,VWS V14.01,2013-06-04 18:19:00,
2013-06-04 13:20:00,84.5,63.8,29.97,WNW,286,3.0,5.0,50,0.00,,---,0.00,VWS V14.01,2013-06-04 18:20:00,
2013-06-04 13:22:00,84.0,63.9,29.97,West,269,3.0,7.0,51,0.00,,---,0.00,VWS V14.01,2013-06-04 18:22:00,
2013-06-04 13:23:00,83.8,63.8,29.97,West,279,3.0,7.0,51,0.00,,---,0.00,VWS V14.01,2013-06-04 18:23:00,
2013-06-04 13:25:00,83.6,64.7,29.97,West,269,3.0,7.0,53,0.00,,---,0.00,VWS V14.01,2013-06-04 18:25:00,
2013-06-04 13:27:00,83.3,63.3,29.97,WSW,239,5.0,7.0,51,0.00,,---,0.00,VWS V14.01,2013-06-04 18:27:00,
2013-06-04 13:28:00,83.2,63.8,29.97,West,269,4.0,7.0,52,0.00,,---,0.00,VWS V14.01,2013-06-04 18:28:00,
2013-06-04 13:29:00,83.2,63.8,29.97,WNW,284,5.0,7.0,52,0.00,,---,0.00,VWS V14.01,2013-06-04 18:29:00,
2013-06-04 13:30:00,83.2,63.8,29.97,WSW,257,1.0,7.0,52,0.00,,---,0.00,VWS V14.01,2013-06-04 18:30:00,
2013-06-04 13:32:00,83.2,62.7,29.97,West,279,1.0,4.0,50,0.00,,---,0.00,VWS V14.01,2013-06-04 18:32:00,
2013-06-04 13:34:00,83.2,62.7,29.96,SW,228,2.0,4.0,50,0.00,,---,0.00,VWS V14.01,2013-06-04 18:34:00,
2013-06-04 13:35:00,83.4,62.8,29.96,WSW,243,0.0,4.0,50,0.00,,---,0.00,VWS V14.01,2013-06-04 18:35:00,
2013-06-04 13:37:00,83.8,63.8,29.96,WSW,254,0.0,5.0,51,0.00,,---,0.00,VWS V14.01,2013-06-04 18:37:00,
2013-06-04 13:39:00,83.9,63.8,29.96,West,264,4.0,6.0,51,0.00,,---,0.00,VWS V14.01,2013-06-04 18:39:00,
2013-06-04 13:40:00,83.9,64.9,29.96,West,281,5.0,6.0,53,0.00,,---,0.00,VWS V14.01,2013-06-04 18:40:00,
2013-06-04 13:43:00,83.9,64.4,29.96,West,274,3.0,8.0,52,0.00,,---,0.00,VWS V14.01,2013-06-04 18:43:00,
2013-06-04 13:44:00,84.0,63.9,29.96,SW,226,1.0,8.0,51,0.00,,---,0.00,VWS V14.01,2013-06-04 18:44:00,
2013-06-04 13:45:00,84.1,64.0,29.96,SW,233,2.0,8.0,51,0.00,,---,0.00,VWS V14.01,2013-06-04 18:45:00,
2013-06-04 13:46:00,84.1,63.5,29.96,WSW,252,1.0,8.0,50,0.00,,---,0.00,VWS V14.01,2013-06-04 18:46:00,
2013-06-04 13:48:00,84.1,63.5,29.95,WSW,257,1.0,2.0,50,0.00,,---,0.00,VWS V14.01,2013-06-04 18:48:00,
2013-06-04 13:49:00,84.2,64.7,29.95,West,259,2.0,2.0,52,0.00,,---,0.00,VWS V14.01,2013-06-04 18:49:00,
2013-06-04 13:50:00,84.2,63.6,29.95,West,271,3.0,4.0,50,0.00,,---,0.00,VWS V14.01,2013-06-04 18:50:00,
2013-06-04 13:51:00,84.3,64.2,29.95,SW,223,3.0,7.0,51,0.00,,---,0.00,VWS V14.01,2013-06-04 18:51:00,
2013-06-04 13:53:00,84.3,64.2,29.95,West,260,3.0,7.0,51,0.00,,---,0.00,VWS V14.01,2013-06-04 18:53:00,
2013-06-04 13:54:00,84.3,64.2,29.95,WNW,299,2.0,7.0,51,0.00,,---,0.00,VWS V14.01,2013-06-04 18:54:00,
2013-06-04 13:55:00,84.2,64.7,29.95,West,276,1.0,7.0,52,0.00,,---,0.00,VWS V14.01,2013-06-04 18:55:00,
2013-06-04 13:57:00,84.3,66.4,29.95,West,271,1.0,7.0,55,0.00,,---,0.00,VWS V14.01,2013-06-04 18:57:00,
2013-06-04 13:58:00,84.3,66.4,29.95,West,279,2.0,7.0,55,0.00,,---,0.00,VWS V14.01,2013-06-04 18:58:00,
2013-06-04 13:59:00,84.1,64.6,29.95,WNW,282,1.0,7.0,52,0.00,,---,0.00,VWS V14.01,2013-06-04 18:59:00,
2013-06-04 14:00:00,84.1,65.7,29.95,West,281,0.0,7.0,54,0.00,,---,0.00,VWS V14.01,2013-06-04 19:00:00,
2013-06-04 14:02:00,84.1,66.2,29.95,WNW,295,3.0,3.0,55,0.00,,---,0.00,VWS V14.01,2013-06-04 19:02:00,
2013-06-04 14:03:00,84.1,65.7,29.95,WNW,297,5.0,6.0,54,0.00,,---,0.00,VWS V14.01,2013-06-04 19:03:00,
2013-06-04 14:04:00,83.9,66.0,29.95,WNW,288,1.0,6.0,55,0.00,,---,0.00,VWS V14.01,2013-06-04 19:04:00,
2013-06-04 14:05:00,83.8,65.4,29.95,WNW,288,1.0,6.0,54,0.00,,---,0.00,VWS V14.01,2013-06-04 19:05:00,
2013-06-04 14:07:00,83.8,64.9,29.95,WNW,291,1.0,6.0,53,0.00,,---,0.00,VWS V14.01,2013-06-04 19:07:00,
2013-06-04 14:08:00,83.8,64.9,29.95,WNW,291,0.0,6.0,53,0.00,,---,0.00,VWS V14.01,2013-06-04 19:08:00,
2013-06-04 14:09:00,83.8,64.9,29.95,WNW,285,1.0,6.0,53,0.00,,---,0.00,VWS V14.01,2013-06-04 19:09:00,
2013-06-04 14:10:00,83.9,65.5,29.95,WNW,286,2.0,6.0,54,0.00,,---,0.00,VWS V14.01,2013-06-04 19:10:00,
2013-06-04 14:12:00,83.9,65.5,29.94,WNW,282,0.0,6.0,54,0.00,,---,0.00,VWS V14.01,2013-06-04 19:12:00,
2013-06-04 14:13:00,83.9,65.5,29.95,WNW,282,0.0,6.0,54,0.00,,---,0.00,VWS V14.01,2013-06-04 19:13:00,
2013-06-04 14:14:00,84.0,65.1,29.94,WNW,287,1.0,6.0,53,0.00,,---,0.00,VWS V14.01,2013-06-04 19:14:00,
2013-06-04 14:16:00,83.9,64.4,29.94,WNW,287,1.0,6.0,52,0.00,,---,0.00,VWS V14.01,2013-06-04 19:16:00,
2013-06-04 14:17:00,83.7,63.7,29.94,West,278,1.0,1.0,51,0.00,,---,0.00,VWS V14.01,2013-06-04 19:17:00,
2013-06-04 14:18:00,83.7,64.8,29.94,West,278,1.0,1.0,53,0.00,,---,0.00,VWS V14.01,2013-06-04 19:18:00,
2013-06-04 14:19:00,83.7,65.3,29.94,West,278,0.0,1.0,54,0.00,,---,0.00,VWS V14.01,2013-06-04 19:19:00,
2013-06-04 14:20:00,83.7,65.3,29.94,West,278,0.0,1.0,54,0.00,,---,0.00,VWS V14.01,2013-06-04 19:20:00,
2013-06-04 14:21:00,83.8,64.3,29.94,West,269,1.0,1.0,52,0.00,,---,0.00,VWS V14.01,2013-06-04 19:21:00,
2013-06-04 14:23:00,83.9,64.4,29.94,WNW,285,5.0,5.0,52,0.00,,---,0.00,VWS V14.01,2013-06-04 19:23:00,
2013-06-04 14:25:00,83.7,63.1,29.94,West,269,2.0,5.0,50,0.00,,---,0.00,VWS V14.01,2013-06-04 19:25:00,
2013-06-04 14:26:00,83.5,63.5,29.94,West,274,3.0,5.0,51,0.00,,---,0.00,VWS V14.01,2013-06-04 19:26:00,
2013-06-04 14:28:00,83.4,65.6,29.94,West,279,0.0,5.0,55,0.00,,---,0.00,VWS V14.01,2013-06-04 19:28:00,
2013-06-04 14:30:00,83.5,64.0,29.94,NW,304,1.0,5.0,52,0.00,,---,0.00,VWS V14.01,2013-06-04 19:30:00,
2013-06-04 14:31:00,83.5,64.0,29.94,NW,304,1.0,1.0,52,0.00,,---,0.00,VWS V14.01,2013-06-04 19:31:00,
2013-06-04 14:33:00,83.5,64.0,29.93,NW,304,0.0,1.0,52,0.00,,---,0.00,VWS V14.01,2013-06-04 19:33:00,
2013-06-04 14:35:00,83.8,64.3,29.93,WNW,302,0.0,1.0,52,0.00,,---,0.00,VWS V14.01,2013-06-04 19:35:00,
2013-06-04 14:37:00,84.1,65.1,29.93,WNW,299,0.0,1.0,53,0.00,,---,0.00,VWS V14.01,2013-06-04 19:37:00,
2013-06-04 14:38:00,84.5,65.0,29.93,WNW,300,1.0,1.0,52,0.00,,---,0.00,VWS V14.01,2013-06-04 19:38:00,
2013-06-04 14:40:00,84.7,65.7,29.93,WNW,299,0.0,1.0,53,0.00,,---,0.00,VWS V14.01,2013-06-04 19:40:00,
2013-06-04 14:42:00,84.8,65.2,29.93,West,273,1.0,1.0,52,0.00,,---,0.00,VWS V14.01,2013-06-04 19:42:00,
2013-06-04 14:43:00,85.0,66.0,29.93,WNW,286,0.0,6.0,53,0.00,,---,0.00,VWS V14.01,2013-06-04 19:43:00,
2013-06-04 14:45:00,85.0,64.9,29.93,West,264,3.0,6.0,51,0.00,,---,0.00,VWS V14.01,2013-06-04 19:45:00,
2013-06-04 14:46:00,85.0,64.9,29.93,West,262,2.0,6.0,51,0.00,,---,0.00,VWS V14.01,2013-06-04 19:46:00,
2013-06-04 14:47:00,85.0,64.9,29.93,West,275,1.0,3.0,51,0.00,,---,0.00,VWS V14.01,2013-06-04 19:47:00,
2013-06-04 14:48:00,85.0,63.7,29.93,West,270,4.0,5.0,49,0.00,,---,0.00,VWS V14.01,2013-06-04 19:48:00,
2013-06-04 14:50:00,84.9,63.6,29.93,West,262,2.0,5.0,49,0.00,,---,0.00,VWS V14.01,2013-06-04 19:50:00,
2013-06-04 14:51:00,84.9,63.6,29.92,West,262,1.0,5.0,49,0.00,,---,0.00,VWS V14.01,2013-06-04 19:51:00,
2013-06-04 14:52:00,85.0,64.3,29.92,West,281,3.0,5.0,50,0.00,,---,0.00,VWS V14.01,2013-06-04 19:52:00,
2013-06-04 14:53:00,85.1,64.4,29.92,West,271,2.0,5.0,50,0.00,,---,0.00,VWS V14.01,2013-06-04 19:53:00,
2013-06-04 14:56:00,85.1,63.8,29.92,West,269,1.0,5.0,49,0.00,,---,0.00,VWS V14.01,2013-06-04 19:56:00,
2013-06-04 14:57:00,85.3,66.2,29.92,WSW,240,1.0,5.0,53,0.00,,---,0.00,VWS V14.01,2013-06-04 19:57:00,
2013-06-04 14:58:00,85.7,66.1,29.93,NW,309,1.0,5.0,52,0.00,,---,0.00,VWS V14.01,2013-06-04 19:58:00,
2013-06-04 15:01:00,85.8,65.0,29.92,West,280,0.0,0.0,50,0.00,,---,0.00,VWS V14.01,2013-06-04 20:01:00,
2013-06-04 15:02:00,85.8,63.9,29.92,SW,233,3.0,3.0,48,0.00,,---,0.00,VWS V14.01,2013-06-04 20:02:00,
2013-06-04 15:04:00,85.8,63.3,29.92,SW,234,1.0,3.0,47,0.00,,---,0.00,VWS V14.01,2013-06-04 20:04:00,
2013-06-04 15:06:00,85.9,65.1,29.92,NNW,337,1.0,3.0,50,0.00,,---,0.00,VWS V14.01,2013-06-04 20:06:00,
2013-06-04 15:07:00,85.8,63.3,29.92,NNW,329,0.0,3.0,47,0.00,,---,0.00,VWS V14.01,2013-06-04 20:07:00,
2013-06-04 15:09:00,85.7,63.8,29.92,NW,314,1.0,3.0,48,0.00,,---,0.00,VWS V14.01,2013-06-04 20:09:00,
2013-06-04 15:11:00,85.5,63.6,29.92,NW,315,0.0,3.0,48,0.00,,---,0.00,VWS V14.01,2013-06-04 20:11:00,
2013-06-04 15:12:00,85.4,63.5,29.92,NW,316,0.0,3.0,48,0.00,,---,0.00,VWS V14.01,2013-06-04 20:12:00,
2013-06-04 15:14:00,85.2,64.5,29.92,NW,315,0.0,3.0,50,0.00,,---,0.00,VWS V14.01,2013-06-04 20:14:00,
2013-06-04 15:17:00,85.3,65.1,29.92,NW,315,0.0,1.0,51,0.00,,---,0.00,VWS V14.01,2013-06-04 20:17:00,
2013-06-04 15:19:00,85.3,65.1,29.92,WSW,255,1.0,2.0,51,0.00,,---,0.00,VWS V14.01,2013-06-04 20:19:00,
2013-06-04 15:20:00,85.3,63.4,29.92,West,264,1.0,2.0,48,0.00,,---,0.00,VWS V14.01,2013-06-04 20:20:00,
2013-06-04 15:22:00,85.2,64.5,29.92,West,263,0.0,2.0,50,0.00,,---,0.00,VWS V14.01,2013-06-04 20:22:00,
2013-06-04 15:24:00,85.2,65.1,29.92,West,263,0.0,2.0,51,0.00,,---,0.00,VWS V14.01,2013-06-04 20:24:00,
2013-06-04 15:25:00,85.2,64.5,29.91,West,264,0.0,2.0,50,0.00,,---,0.00,VWS V14.01,2013-06-04 20:25:00,
2013-06-04 15:27:00,84.9,65.3,29.91,West,263,0.0,2.0,52,0.00,,---,0.00,VWS V14.01,2013-06-04 20:27:00,
2013-06-04 15:29:00,84.7,65.1,29.91,NNE,20,0.0,2.0,52,0.00,,---,0.00,VWS V14.01,2013-06-04 20:29:00,
2013-06-04 15:30:00,84.5,65.5,29.91,NNE,15,0.0,2.0,53,0.00,,---,0.00,VWS V14.01,2013-06-04 20:30:00,
2013-06-04 15:32:00,84.3,65.3,29.91,NNW,337,0.0,0.0,53,0.00,,---,0.00,VWS V14.01,2013-06-04 20:32:00,
2013-06-04 15:33:00,84.2,65.2,29.91,NNW,337,0.0,0.0,53,0.00,,---,0.00,VWS V14.01,2013-06-04 20:33:00,
2013-06-04 15:34:00,84.2,65.2,29.91,WNW,283,1.0,1.0,53,0.00,,---,0.00,VWS V14.01,2013-06-04 20:34:00,
2013-06-04 15:36:00,84.2,64.7,29.91,WNW,299,0.0,2.0,52,0.00,,---,0.00,VWS V14.01,2013-06-04 20:36:00,
2013-06-04 15:37:00,84.2,64.7,29.91,SW,227,2.0,2.0,52,0.00,,---,0.00,VWS V14.01,2013-06-04 20:37:00,
2013-06-04 15:38:00,84.3,64.8,29.91,SW,228,0.0,2.0,52,0.00,,---,0.00,VWS V14.01,2013-06-04 20:38:00,
2013-06-04 15:39:00,84.5,64.4,29.91,West,275,0.0,3.0,51,0.00,,---,0.00,VWS V14.01,2013-06-04 20:39:00,
2013-06-04 15:41:00,84.6,64.5,29.91,West,270,1.0,3.0,51,0.00,,---,0.00,VWS V14.01,2013-06-04 20:41:00,
2013-06-04 15:42:00,84.6,64.5,29.91,West,271,1.0,3.0,51,0.00,,---,0.00,VWS V14.01,2013-06-04 20:42:00,
2013-06-04 15:43:00,84.6,65.1,29.91,West,264,2.0,3.0,52,0.00,,---,0.00,VWS V14.01,2013-06-04 20:43:00,
2013-06-04 15:44:00,84.5,63.8,29.91,West,262,1.0,3.0,50,0.00,,---,0.00,VWS V14.01,2013-06-04 20:44:00,
2013-06-04 15:47:00,84.6,64.5,29.91,West,260,0.0,0.0,51,0.00,,---,0.00,VWS V14.01,2013-06-04 20:47:00,
2013-06-04 15:48:00,84.7,65.1,29.91,West,261,0.0,0.0,52,0.00,,---,0.00,VWS V14.01,2013-06-04 20:48:00,
2013-06-04 15:49:00,84.6,65.1,29.90,West,280,1.0,3.0,52,0.00,,---,0.00,VWS V14.01,2013-06-04 20:49:00,
2013-06-04 15:52:00,84.4,64.9,29.90,West,276,0.0,3.0,52,0.00,,---,0.00,VWS V14.01,2013-06-04 20:52:00,
2013-06-04 15:53:00,84.4,65.4,29.90,West,276,0.0,3.0,53,0.00,,---,0.00,VWS V14.01,2013-06-04 20:53:00,
2013-06-04 15:54:00,84.5,64.4,29.90,West,276,0.0,3.0,51,0.00,,---,0.00,VWS V14.01,2013-06-04 20:54:00,
2013-06-04 15:57:00,84.7,66.2,29.90,East,79,1.0,3.0,54,0.00,,---,0.00,VWS V14.01,2013-06-04 20:57:00,
2013-06-04 15:58:00,84.7,65.1,29.90,ENE,75,1.0,3.0,52,0.00,,---,0.00,VWS V14.01,2013-06-04 20:58:00,
2013-06-04 15:59:00,84.6,65.1,29.90,North,359,0.0,3.0,52,0.00,,---,0.00,VWS V14.01,2013-06-04 20:59:00,
2013-06-04 16:02:00,84.4,63.8,29.90,North,359,2.0,4.0,50,0.00,,---,0.00,VWS V14.01,2013-06-04 21:02:00,
2013-06-04 16:03:00,84.4,63.8,29.90,North,356,1.0,4.0,50,0.00,,---,0.00,VWS V14.01,2013-06-04 21:03:00,
2013-06-04 16:05:00,84.3,65.9,29.90,SW,231,2.0,4.0,54,0.00,,---,0.00,VWS V14.01,2013-06-04 21:05:00,
2013-06-04 16:07:00,84.5,65.5,29.90,West,259,0.0,4.0,53,0.00,,---,0.00,VWS V14.01,2013-06-04 21:07:00,
2013-06-04 16:08:00,84.5,65.5,29.90,West,259,0.0,4.0,53,0.00,,---,0.00,VWS V14.01,2013-06-04 21:08:00,
2013-06-04 16:10:00,84.6,65.6,29.90,SW,234,0.0,4.0,53,0.00,,---,0.00,VWS V14.01,2013-06-04 21:10:00,
2013-06-04 16:12:00,84.7,66.0,29.90,SW,233,0.0,2.0,54,0.00,,,0.00,weatherlink.com 1.10,2013-06-04 21:12:00,
2013-06-04 16:13:00,84.8,66.3,29.90,SW,233,0.0,4.0,54,0.00,,---,0.00,VWS V14.01,2013-06-04 21:13:00,
2013-06-04 16:14:00,84.9,66.4,29.90,WSW,238,1.0,4.0,54,0.00,,---,0.00,VWS V14.01,2013-06-04 21:14:00,
2013-06-04 16:15:00,85.1,65.5,29.90,West,274,4.0,5.0,52,0.00,,---,0.00,VWS V14.01,2013-06-04 21:15:00,
2013-06-04 16:17:00,85.4,65.2,29.90,WSW,250,1.0,5.0,51,0.00,,---,0.00,VWS V14.01,2013-06-04 21:17:00,
2013-06-04 16:18:00,85.4,65.2,29.90,West,264,1.0,5.0,51,0.00,,---,0.00,VWS V14.01,2013-06-04 21:18:00,
2013-06-04 16:19:00,85.6,64.8,29.90,West,267,1.0,5.0,50,0.00,,---,0.00,VWS V14.01,2013-06-04 21:19:00,
2013-06-04 16:20:00,85.7,65.5,29.90,West,264,1.0,5.0,51,0.00,,---,0.00,VWS V14.01,2013-06-04 21:20:00,
2013-06-04 16:23:00,86.0,64.6,29.90,WSW,240,3.0,6.0,49,0.00,,---,0.00,VWS V14.01,2013-06-04 21:23:00,
2013-06-04 16:24:00,86.0,64.0,29.90,West,267,1.0,6.0,48,0.00,,---,0.00,VWS V14.01,2013-06-04 21:24:00,
2013-06-04 16:25:00,86.1,64.1,29.90,SSW,204,4.0,6.0,48,0.00,,---,0.00,VWS V14.01,2013-06-04 21:25:00,
2013-06-04 16:28:00,86.3,64.9,29.90,WSW,254,2.0,6.0,49,0.00,,---,0.00,VWS V14.01,2013-06-04 21:28:00,
2013-06-04 16:29:00,86.4,65.0,29.90,West,264,2.0,6.0,49,0.00,,---,0.00,VWS V14.01,2013-06-04 21:29:00,
2013-06-04 16:30:00,86.5,64.5,29.90,WNW,288,1.0,6.0,48,0.00,,---,0.00,VWS V14.01,2013-06-04 21:30:00,
2013-06-04 16:33:00,86.0,64.6,29.90,West,273,1.0,6.0,49,0.00,,---,0.00,VWS V14.01,2013-06-04 21:33:00,
2013-06-04 16:34:00,86.0,64.6,29.90,SW,214,4.0,6.0,49,0.00,,---,0.00,VWS V14.01,2013-06-04 21:34:00,
2013-06-04 16:35:00,86.0,64.6,29.90,WSW,255,1.0,6.0,49,0.00,,---,0.00,VWS V14.01,2013-06-04 21:35:00,
2013-06-04 16:38:00,85.9,64.5,29.90,West,264,2.0,6.0,49,0.00,,---,0.00,VWS V14.01,2013-06-04 21:38:00,
2013-06-04 16:39:00,85.8,65.0,29.90,West,271,1.0,6.0,50,0.00,,---,0.00,VWS V14.01,2013-06-04 21:39:00,
2013-06-04 16:40:00,85.9,66.8,29.90,WNW,292,1.0,6.0,53,0.00,,---,0.00,VWS V14.01,2013-06-04 21:40:00,
2013-06-04 16:43:00,85.8,65.0,29.90,NW,318,1.0,6.0,50,0.00,,---,0.00,VWS V14.01,2013-06-04 21:43:00,
2013-06-04 16:44:00,85.7,64.9,29.90,NW,318,0.0,6.0,50,0.00,,---,0.00,VWS V14.01,2013-06-04 21:44:00,
2013-06-04 16:45:00,85.5,64.8,29.90,SW,225,2.0,6.0,50,0.00,,---,0.00,VWS V14.01,2013-06-04 21:45:00,
2013-06-04 16:46:00,85.5,65.3,29.90,WSW,238,2.0,6.0,51,0.00,,---,0.00,VWS V14.01,2013-06-04 21:46:00,
2013-06-04 16:48:00,85.3,65.1,29.90,WSW,256,0.0,2.0,51,0.00,,---,0.00,VWS V14.01,2013-06-04 21:48:00,
2013-06-04 16:49:00,85.2,65.1,29.90,WSW,257,0.0,2.0,51,0.00,,---,0.00,VWS V14.01,2013-06-04 21:49:00,
2013-06-04 16:50:00,85.2,66.2,29.90,West,261,1.0,2.0,53,0.00,,---,0.00,VWS V14.01,2013-06-04 21:50:00,
2013-06-04 16:51:00,85.3,65.7,29.90,West,261,0.0,2.0,52,0.00,,---,0.00,VWS V14.01,2013-06-04 21:51:00,
2013-06-04 16:53:00,85.5,65.3,29.90,West,259,0.0,2.0,51,0.00,,---,0.00,VWS V14.01,2013-06-04 21:53:00,
2013-06-04 16:54:00,85.6,66.0,29.90,West,259,1.0,2.0,52,0.00,,---,0.00,VWS V14.01,2013-06-04 21:54:00,
2013-06-04 16:55:00,85.6,66.0,29.90,NNE,31,0.0,2.0,52,0.00,,---,0.00,VWS V14.01,2013-06-04 21:55:00,
2013-06-04 16:56:00,85.6,65.4,29.90,NNE,31,0.0,2.0,51,0.00,,---,0.00,VWS V14.01,2013-06-04 21:56:00,
2013-06-04 16:58:00,85.4,65.8,29.90,NNE,31,0.0,2.0,52,0.00,,---,0.00,VWS V14.01,2013-06-04 21:58:00,
2013-06-04 16:59:00,85.4,65.8,29.90,NNE,30,0.0,2.0,52,0.00,,---,0.00,VWS V14.01,2013-06-04 21:59:00,
2013-06-04 17:00:00,85.4,65.8,29.90,SW,231,0.0,2.0,52,0.00,,---,0.00,VWS V14.01,2013-06-04 22:00:00,
2013-06-04 17:02:00,85.4,65.2,29.90,SW,231,0.0,0.0,51,0.00,,---,0.00,VWS V14.01,2013-06-04 22:02:00,
2013-06-04 17:03:00,85.4,66.3,29.90,SW,233,0.0,1.0,53,0.00,,---,0.00,VWS V14.01,2013-06-04 22:03:00,
2013-06-04 17:04:00,85.5,66.4,29.90,SW,233,1.0,1.0,53,0.00,,---,0.00,VWS V14.01,2013-06-04 22:04:00,
2013-06-04 17:05:00,85.6,66.5,29.90,SW,230,2.0,2.0,53,0.00,,---,0.00,VWS V14.01,2013-06-04 22:05:00,
2013-06-04 17:07:00,85.8,65.6,29.90,WSW,238,0.0,3.0,51,0.00,,---,0.00,VWS V14.01,2013-06-04 22:07:00,
2013-06-04 17:09:00,86.1,67.0,29.90,WSW,240,1.0,3.0,53,0.00,,---,0.00,VWS V14.01,2013-06-04 22:09:00,
2013-06-04 17:10:00,86.3,67.2,29.90,SW,224,1.0,3.0,53,0.00,,---,0.00,VWS V14.01,2013-06-04 22:10:00,
2013-06-04 17:11:00,86.4,65.6,29.90,WSW,247,1.0,3.0,50,0.00,,---,0.00,VWS V14.01,2013-06-04 22:11:00,
2013-06-04 17:12:00,86.5,65.1,29.90,West,271,1.0,3.0,49,0.00,,---,0.00,VWS V14.01,2013-06-04 22:12:00,
2013-06-04 17:14:00,86.6,66.3,29.90,West,271,1.0,3.0,51,0.00,,---,0.00,VWS V14.01,2013-06-04 22:14:00,
2013-06-04 17:15:00,86.7,67.0,29.89,West,271,0.0,3.0,52,0.00,,---,0.00,VWS V14.01,2013-06-04 22:15:00,
2013-06-04 17:16:00,86.8,67.1,29.89,West,271,1.0,3.0,52,0.00,,---,0.00,VWS V14.01,2013-06-04 22:16:00,
2013-06-04 17:17:00,86.8,66.5,29.89,West,262,0.0,2.0,51,0.00,,---,0.00,VWS V14.01,2013-06-04 22:17:00,
2013-06-04 17:19:00,87.0,65.6,29.89,West,264,0.0,3.0,49,0.00,,---,0.00,VWS V14.01,2013-06-04 22:19:00,
2013-06-04 17:20:00,87.0,66.1,29.89,WSW,247,1.0,3.0,50,0.00,,---,0.00,VWS V14.01,2013-06-04 22:20:00,
2013-06-04 17:21:00,87.0,65.6,29.89,WSW,241,1.0,3.0,49,0.00,,---,0.00,VWS V14.01,2013-06-04 22:21:00,
2013-06-04 17:22:00,87.0,65.6,29.89,WSW,240,0.0,3.0,49,0.00,,---,0.00,VWS V14.01,2013-06-04 22:22:00,
2013-06-04 17:24:00,87.1,67.4,29.89,WSW,241,0.0,3.0,52,0.00,,---,0.00,VWS V14.01,2013-06-04 22:24:00,
2013-06-04 17:25:00,87.1,66.8,29.89,WSW,240,0.0,3.0,51,0.00,,---,0.00,VWS V14.01,2013-06-04 22:25:00,
2013-06-04 17:26:00,87.1,67.4,29.89,WSW,240,1.0,3.0,52,0.00,,---,0.00,VWS V14.01,2013-06-04 22:26:00,
2013-06-04 17:27:00,87.1,67.4,29.89,WNW,282,2.0,3.0,52,0.00,,---,0.00,VWS V14.01,2013-06-04 22:27:00,
2013-06-04 17:29:00,86.9,67.2,29.89,West,280,1.0,3.0,52,0.00,,---,0.00,VWS V14.01,2013-06-04 22:29:00,
2013-06-04 17:31:00,86.9,67.2,29.89,WNW,283,1.0,3.0,52,0.00,,---,0.00,VWS V14.01,2013-06-04 22:31:00,
2013-06-04 17:32:00,86.7,65.9,29.89,WNW,283,1.0,1.0,50,0.00,,---,0.00,VWS V14.01,2013-06-04 22:32:00,
2013-06-04 17:34:00,86.4,66.7,29.89,SW,226,2.0,2.0,52,0.00,,---,0.00,VWS V14.01,2013-06-04 22:34:00,
2013-06-04 17:35:00,86.4,66.7,29.89,SW,226,2.0,2.0,52,0.00,,---,0.00,VWS V14.01,2013-06-04 22:35:00,
2013-06-04 17:36:00,86.4,65.0,29.89,SW,223,2.0,6.0,49,0.00,,---,0.00,VWS V14.01,2013-06-04 22:36:00,
2013-06-04 17:37:00,86.3,64.9,29.89,West,269,3.0,6.0,49,0.00,,---,0.00,VWS V14.01,2013-06-04 22:37:00,
2013-06-04 17:39:00,86.2,66.0,29.89,West,263,0.0,6.0,51,0.00,,---,0.00,VWS V14.01,2013-06-04 22:39:00,
2013-06-04 17:40:00,86.2,66.0,29.89,West,263,0.0,6.0,51,0.00,,---,0.00,VWS V14.01,2013-06-04 22:40:00,
2013-06-04 17:41:00,86.4,66.7,29.89,SW,218,3.0,6.0,52,0.00,,---,0.00,VWS V14.01,2013-06-04 22:41:00,
2013-06-04 17:42:00,86.4,65.6,29.89,West,271,1.0,6.0,50,0.00,,---,0.00,VWS V14.01,2013-06-04 22:42:00,
2013-06-04 17:43:00,86.4,65.6,29.89,WNW,287,2.0,6.0,50,0.00,,---,0.00,VWS V14.01,2013-06-04 22:43:00,
2013-06-04 17:45:00,86.3,64.9,29.89,West,271,1.0,6.0,49,0.00,,---,0.00,VWS V14.01,2013-06-04 22:45:00,
2013-06-04 17:47:00,86.4,65.0,29.89,WSW,240,0.0,2.0,49,0.00,,---,0.00,VWS V14.01,2013-06-04 22:47:00,
2013-06-04 17:48:00,86.4,65.0,29.88,WSW,240,1.0,2.0,49,0.00,,---,0.00,VWS V14.01,2013-06-04 22:48:00,
2013-06-04 17:50:00,86.6,64.6,29.89,WSW,245,0.0,2.0,48,0.00,,---,0.00,VWS V14.01,2013-06-04 22:50:00,
2013-06-04 17:52:00,86.8,65.4,29.89,WSW,245,1.0,2.0,49,0.00,,---,0.00,VWS V14.01,2013-06-04 22:52:00,
2013-06-04 17:53:00,86.9,65.5,29.89,WSW,245,1.0,2.0,49,0.00,,---,0.00,VWS V14.01,2013-06-04 22:53:00,
2013-06-04 17:55:00,87.0,66.7,29.89,WSW,242,0.0,2.0,51,0.00,,---,0.00,VWS V14.01,2013-06-04 22:55:00,
2013-06-04 17:57:00,87.1,66.2,29.89,West,280,0.0,2.0,50,0.00,,---,0.00,VWS V14.01,2013-06-04 22:57:00,
2013-06-04 17:58:00,87.0,66.1,29.89,West,278,1.0,2.0,50,0.00,,---,0.00,VWS V14.01,2013-06-04 22:58:00,
2013-06-04 17:59:00,87.0,66.1,29.89,West,279,0.0,2.0,50,0.00,,---,0.00,VWS V14.01,2013-06-04 22:59:00,
2013-06-04 18:00:00,87.0,66.1,29.89,West,279,0.0,2.0,50,0.00,,---,0.00,VWS V14.01,2013-06-04 23:00:00,
2013-06-04 18:02:00,87.0,66.1,29.89,West,278,0.0,1.0,50,0.00,,---,0.00,VWS V14.01,2013-06-04 23:02:00,
2013-06-04 18:04:00,87.1,66.8,29.88,West,278,0.0,1.0,51,0.00,,---,0.00,VWS V14.01,2013-06-04 23:04:00,
2013-06-04 18:05:00,87.1,66.8,29.89,West,278,0.0,1.0,51,0.00,,---,0.00,VWS V14.01,2013-06-04 23:05:00,
2013-06-04 18:07:00,86.9,66.6,29.88,West,277,0.0,1.0,51,0.00,,---,0.00,VWS V14.01,2013-06-04 23:07:00,
2013-06-04 18:09:00,87.0,66.1,29.88,West,278,0.0,1.0,50,0.00,,---,0.00,VWS V14.01,2013-06-04 23:09:00,
2013-06-04 18:10:00,87.0,65.6,29.88,WSW,239,2.0,2.0,49,0.00,,---,0.00,VWS V14.01,2013-06-04 23:10:00,
2013-06-04 18:12:00,86.9,65.5,29.88,WSW,240,0.0,3.0,49,0.00,,---,0.00,VWS V14.01,2013-06-04 23:12:00,
2013-06-04 18:14:00,86.9,66.0,29.88,WSW,240,1.0,3.0,50,0.00,,---,0.00,VWS V14.01,2013-06-04 23:14:00,
2013-06-04 18:15:00,86.9,66.6,29.88,WSW,240,0.0,3.0,51,0.00,,---,0.00,VWS V14.01,2013-06-04 23:15:00,
2013-06-04 18:17:00,86.6,66.9,29.88,WSW,240,0.0,1.0,52,0.00,,---,0.00,VWS V14.01,2013-06-04 23:17:00,
2013-06-04 18:19:00,86.2,66.0,29.89,WSW,240,1.0,1.0,51,0.00,,---,0.00,VWS V14.01,2013-06-04 23:19:00,
2013-06-04 18:20:00,86.2,66.0,29.89,WSW,240,1.0,2.0,51,0.00,,---,0.00,VWS V14.01,2013-06-04 23:20:00,
2013-06-04 18:22:00,85.9,66.2,29.88,WSW,240,0.0,2.0,52,0.00,,---,0.00,VWS V14.01,2013-06-04 23:22:00,
2013-06-04 18:25:00,85.9,65.1,29.88,WSW,241,0.0,2.0,50,0.00,,---,0.00,VWS V14.01,2013-06-04 23:25:00,
2013-06-04 18:28:00,86.1,65.3,29.88,WSW,247,0.0,2.0,50,0.00,,---,0.00,VWS V14.01,2013-06-04 23:28:00,
2013-06-04 18:30:00,86.1,65.9,29.88,WSW,247,0.0,2.0,51,0.00,,---,0.00,VWS V14.01,2013-06-04 23:30:00,
2013-06-04 18:31:00,86.2,66.0,29.88,WSW,250,1.0,2.0,51,0.00,,---,0.00,VWS V14.01,2013-06-04 23:31:00,
2013-06-04 18:33:00,86.1,65.3,29.88,WSW,250,1.0,2.0,50,0.00,,---,0.00,VWS V14.01,2013-06-04 23:33:00,
2013-06-04 18:35:00,86.0,65.2,29.88,WSW,249,0.0,2.0,50,0.00,,---,0.00,VWS V14.01,2013-06-04 23:35:00,
2013-06-04 18:36:00,86.0,65.2,29.88,WSW,249,1.0,2.0,50,0.00,,---,0.00,VWS V14.01,2013-06-04 23:36:00,
2013-06-04 18:38:00,86.0,65.2,29.88,WSW,250,0.0,2.0,50,0.00,,---,0.00,VWS V14.01,2013-06-04 23:38:00,
2013-06-04 18:40:00,86.0,66.3,29.88,WSW,250,0.0,2.0,52,0.00,,---,0.00,VWS V14.01,2013-06-04 23:40:00,
2013-06-04 18:41:00,86.0,66.3,29.88,WSW,250,0.0,2.0,52,0.00,,---,0.00,VWS V14.01,2013-06-04 23:41:00,
2013-06-04 18:42:00,86.1,67.0,29.88,WSW,251,0.0,2.0,53,0.00,,---,0.00,VWS V14.01,2013-06-04 23:42:00,
2013-06-04 18:43:00,86.0,66.3,29.88,WSW,251,0.0,2.0,52,0.00,,---,0.00,VWS V14.01,2013-06-04 23:43:00,
2013-06-04 18:45:00,85.8,66.7,29.88,WSW,251,0.0,2.0,53,0.00,,---,0.00,VWS V14.01,2013-06-04 23:45:00,
2013-06-04 18:46:00,85.8,66.7,29.88,WSW,250,0.0,2.0,53,0.00,,---,0.00,VWS V14.01,2013-06-04 23:46:00,
2013-06-04 18:47:00,85.6,66.5,29.88,WSW,251,0.0,0.0,53,0.00,,---,0.00,VWS V14.01,2013-06-04 23:47:00,
2013-06-04 18:48:00,85.3,65.1,29.88,WSW,242,2.0,4.0,51,0.00,,---,0.00,VWS V14.01,2013-06-04 23:48:00,
2013-06-04 18:50:00,85.0,65.4,29.88,WSW,242,0.0,4.0,52,0.00,,---,0.00,VWS V14.01,2013-06-04 23:50:00,
2013-06-04 18:51:00,85.0,65.4,29.88,WSW,242,0.0,4.0,52,0.00,,---,0.00,VWS V14.01,2013-06-04 23:51:00,
2013-06-04 18:52:00,84.9,65.9,29.88,WSW,242,0.0,4.0,53,0.00,,---,0.00,VWS V14.01,2013-06-04 23:52:00,
2013-06-04 18:53:00,84.7,66.2,29.88,WSW,243,0.0,4.0,54,0.00,,---,0.00,VWS V14.01,2013-06-04 23:53:00,
2013-06-04 18:55:00,84.3,66.4,29.88,WSW,242,1.0,4.0,55,0.00,,---,0.00,VWS V14.01,2013-06-04 23:55:00,
2013-06-04 18:56:00,84.2,66.3,29.88,WSW,242,0.0,4.0,55,0.00,,---,0.00,VWS V14.01,2013-06-04 23:56:00,
2013-06-04 18:57:00,83.9,65.5,29.88,WSW,242,0.0,4.0,54,0.00,,---,0.00,VWS V14.01,2013-06-04 23:57:00,
2013-06-04 18:58:00,83.6,65.7,29.88,WSW,242,0.0,4.0,55,0.00,,---,0.00,VWS V14.01,2013-06-04 23:58:00,
2013-06-04 19:00:00,83.2,65.9,29.88,WSW,242,0.0,4.0,56,0.00,,---,0.00,VWS V14.01,2013-06-05 00:00:00,
2013-06-04 19:01:00,83.1,66.3,29.88,WSW,243,0.0,0.0,57,0.00,,---,0.00,VWS V14.01,2013-06-05 00:01:00,
2013-06-04 19:02:00,83.0,66.2,29.88,WSW,244,0.0,0.0,57,0.00,,---,0.00,VWS V14.01,2013-06-05 00:02:00,
2013-06-04 19:04:00,82.7,66.4,29.88,WSW,243,0.0,0.0,58,0.00,,---,0.00,VWS V14.01,2013-06-05 00:04:00,
2013-06-04 19:05:00,82.5,66.2,29.88,West,262,1.0,1.0,58,0.00,,---,0.00,VWS V14.01,2013-06-05 00:05:00,
2013-06-04 19:07:00,82.3,65.6,29.88,West,264,0.0,1.0,57,0.00,,---,0.00,VWS V14.01,2013-06-05 00:07:00,
2013-06-04 19:09:00,82.0,66.3,29.89,West,263,0.0,1.0,59,0.00,,---,0.00,VWS V14.01,2013-06-05 00:09:00,
2013-06-04 19:11:00,81.8,65.6,29.89,West,263,0.0,1.0,58,0.00,,---,0.00,VWS V14.01,2013-06-05 00:11:00,
2013-06-04 19:12:00,81.7,65.5,29.89,West,263,0.0,1.0,58,0.00,,---,0.00,VWS V14.01,2013-06-05 00:12:00,
2013-06-04 19:14:00,81.4,65.7,29.89,West,262,0.0,1.0,59,0.00,,---,0.00,VWS V14.01,2013-06-05 00:14:00,
2013-06-04 19:16:00,81.3,65.6,29.89,West,262,0.0,0.0,59,0.00,,---,0.00,VWS V14.01,2013-06-05 00:16:00,
2013-06-04 19:17:00,81.2,65.5,29.89,West,263,0.0,0.0,59,0.00,,---,0.00,VWS V14.01,2013-06-05 00:17:00,
2013-06-04 19:20:00,80.9,65.2,29.89,West,262,0.0,0.0,59,0.00,,---,0.00,VWS V14.01,2013-06-05 00:20:00,
2013-06-04 19:22:00,80.8,65.2,29.89,West,262,0.0,0.0,59,0.00,,---,0.00,VWS V14.01,2013-06-05 00:22:00,
2013-06-04 19:25:00,80.6,65.9,29.89,West,262,0.0,0.0,61,0.00,,---,0.00,VWS V14.01,2013-06-05 00:25:00,
2013-06-04 19:27:00,80.5,65.8,29.89,West,262,0.0,0.0,61,0.00,,---,0.00,VWS V14.01,2013-06-05 00:27:00,
2013-06-04 19:28:00,80.5,65.8,29.89,West,262,0.0,0.0,61,0.00,,---,0.00,VWS V14.01,2013-06-05 00:28:00,
2013-06-04 19:30:00,80.3,66.6,29.89,West,262,0.0,0.0,63,0.00,,---,0.00,VWS V14.01,2013-06-05 00:30:00,
2013-06-04 19:32:00,80.1,66.4,29.89,West,262,0.0,0.0,63,0.00,,---,0.00,VWS V14.01,2013-06-05 00:32:00,
2013-06-04 19:33:00,80.1,66.4,29.89,West,262,0.0,0.0,63,0.00,,---,0.00,VWS V14.01,2013-06-05 00:33:00,
2013-06-04 19:36:00,79.8,66.1,29.89,West,262,0.0,0.0,63,0.00,,---,0.00,VWS V14.01,2013-06-05 00:36:00,
2013-06-04 19:37:00,79.7,66.0,29.89,West,262,0.0,0.0,63,0.00,,---,0.00,VWS V14.01,2013-06-05 00:37:00,
2013-06-04 19:38:00,79.7,66.0,29.89,West,262,0.0,0.0,63,0.00,,---,0.00,VWS V14.01,2013-06-05 00:38:00,
2013-06-04 19:41:00,79.4,66.2,29.89,West,262,0.0,0.0,64,0.00,,---,0.00,VWS V14.01,2013-06-05 00:41:00,
2013-06-04 19:42:00,79.3,66.1,29.89,West,262,0.0,0.0,64,0.00,,---,0.00,VWS V14.01,2013-06-05 00:42:00,
2013-06-04 19:43:00,79.3,66.1,29.89,West,262,0.0,0.0,64,0.00,,---,0.00,VWS V14.01,2013-06-05 00:43:00,
2013-06-04 19:46:00,79.1,66.3,29.90,West,262,0.0,0.0,65,0.00,,---,0.00,VWS V14.01,2013-06-05 00:46:00,
2013-06-04 19:47:00,79.0,66.7,29.90,West,262,0.0,0.0,66,0.00,,---,0.00,VWS V14.01,2013-06-05 00:47:00,
2013-06-04 19:48:00,79.0,66.7,29.90,West,262,0.0,0.0,66,0.00,,---,0.00,VWS V14.01,2013-06-05 00:48:00,
2013-06-04 19:52:00,78.7,66.4,29.90,West,262,0.0,0.0,66,0.00,,---,0.00,VWS V14.01,2013-06-05 00:52:00,
2013-06-04 19:53:00,78.6,66.3,29.90,West,262,0.0,0.0,66,0.00,,---,0.00,VWS V14.01,2013-06-05 00:53:00,
2013-06-04 19:54:00,78.5,66.2,29.90,West,262,0.0,0.0,66,0.00,,---,0.00,VWS V14.01,2013-06-05 00:54:00,
2013-06-04 19:57:00,78.3,66.4,29.89,West,262,0.0,0.0,67,0.00,,---,0.00,VWS V14.01,2013-06-05 00:57:00,
2013-06-04 19:58:00,78.3,66.4,29.89,West,262,0.0,0.0,67,0.00,,---,0.00,VWS V14.01,2013-06-05 00:58:00,
2013-06-04 19:59:00,78.2,66.4,29.89,West,262,0.0,0.0,67,0.00,,---,0.00,VWS V14.01,2013-06-05 00:59:00,
2013-06-04 20:02:00,77.9,66.1,29.90,West,262,0.0,0.0,67,0.00,,---,0.00,VWS V14.01,2013-06-05 01:02:00,
2013-06-04 20:03:00,77.9,66.5,29.90,West,262,0.0,0.0,68,0.00,,---,0.00,VWS V14.01,2013-06-05 01:03:00,
2013-06-04 20:04:00,77.7,66.3,29.90,West,262,0.0,0.0,68,0.00,,---,0.00,VWS V14.01,2013-06-05 01:04:00,
2013-06-04 20:07:00,77.5,66.5,29.90,West,262,0.0,0.0,69,0.00,,---,0.00,VWS V14.01,2013-06-05 01:07:00,
2013-06-04 20:08:00,77.5,66.5,29.90,West,262,0.0,0.0,69,0.00,,---,0.00,VWS V14.01,2013-06-05 01:08:00,
2013-06-04 20:09:00,77.4,66.4,29.90,West,262,0.0,0.0,69,0.00,,---,0.00,VWS V14.01,2013-06-05 01:09:00,
2013-06-04 20:10:00,77.3,66.3,29.90,West,262,0.0,0.0,69,0.00,,---,0.00,VWS V14.01,2013-06-05 01:10:00,
2013-06-04 20:12:00,77.2,66.2,29.90,West,262,0.0,0.0,69,0.00,,---,0.00,VWS V14.01,2013-06-05 01:12:00,
2013-06-04 20:13:00,77.1,66.2,29.90,West,262,0.0,0.0,69,0.00,,---,0.00,VWS V14.01,2013-06-05 01:13:00,
2013-06-04 20:14:00,77.0,66.5,29.90,West,262,0.0,0.0,70,0.00,,---,0.00,VWS V14.01,2013-06-05 01:14:00,
2013-06-04 20:15:00,76.9,66.4,29.90,West,262,0.0,0.0,70,0.00,,---,0.00,VWS V14.01,2013-06-05 01:15:00,
2013-06-04 20:17:00,76.8,66.3,29.90,West,262,0.0,0.0,70,0.00,,---,0.00,VWS V14.01,2013-06-05 01:17:00,
2013-06-04 20:18:00,76.7,66.2,29.90,West,262,0.0,0.0,70,0.00,,---,0.00,VWS V14.01,2013-06-05 01:18:00,
2013-06-04 20:19:00,76.6,66.5,29.90,West,262,0.0,0.0,71,0.00,,---,0.00,VWS V14.01,2013-06-05 01:19:00,
2013-06-04 20:21:00,76.5,66.4,29.90,West,262,0.0,0.0,71,0.00,,---,0.00,VWS V14.01,2013-06-05 01:21:00,
2013-06-04 20:22:00,76.4,66.3,29.90,West,262,0.0,0.0,71,0.00,,---,0.00,VWS V14.01,2013-06-05 01:22:00,
2013-06-04 20:23:00,76.4,66.3,29.90,West,262,0.0,0.0,71,0.00,,---,0.00,VWS V14.01,2013-06-05 01:23:00,
2013-06-04 20:25:00,76.3,65.8,29.90,West,262,0.0,0.0,70,0.00,,---,0.00,VWS V14.01,2013-06-05 01:25:00,
2013-06-04 20:26:00,76.3,65.8,29.90,West,262,0.0,0.0,70,0.00,,---,0.00,VWS V14.01,2013-06-05 01:26:00,
2013-06-04 20:27:00,76.3,65.8,29.90,West,262,0.0,0.0,70,0.00,,---,0.00,VWS V14.01,2013-06-05 01:27:00,
2013-06-04 20:28:00,76.3,66.2,29.90,West,262,0.0,0.0,71,0.00,,---,0.00,VWS V14.01,2013-06-05 01:28:00,
2013-06-04 20:29:00,76.3,66.2,29.90,West,262,0.0,0.0,71,0.00,,---,0.00,VWS V14.01,2013-06-05 01:29:00,
2013-06-04 20:30:00,76.4,65.9,29.90,West,262,0.0,1.0,70,0.00,,---,0.00,VWS V14.01,2013-06-05 01:30:00,
2013-06-04 20:31:00,76.4,65.9,29.90,West,262,0.0,0.0,70,0.00,,---,0.00,VWS V14.01,2013-06-05 01:31:00,
2013-06-04 20:32:00,76.5,66.4,29.90,West,262,0.0,0.0,71,0.00,,---,0.00,VWS V14.01,2013-06-05 01:32:00,
2013-06-04 20:33:00,76.5,66.0,29.90,West,262,0.0,0.0,70,0.00,,---,0.00,VWS V14.01,2013-06-05 01:33:00,
2013-06-04 20:34:00,76.5,66.0,29.90,West,262,0.0,0.0,70,0.00,,---,0.00,VWS V14.01,2013-06-05 01:34:00,
2013-06-04 20:35:00,76.6,66.1,29.90,West,262,0.0,0.0,70,0.00,,---,0.00,VWS V14.01,2013-06-05 01:35:00,
2013-06-04 20:36:00,76.5,66.0,29.90,West,262,0.0,0.0,70,0.00,,---,0.00,VWS V14.01,2013-06-05 01:36:00,
2013-06-04 20:37:00,76.5,66.4,29.90,West,262,0.0,0.0,71,0.00,,---,0.00,VWS V14.01,2013-06-05 01:37:00,
2013-06-04 20:38:00,76.5,66.4,29.90,West,262,0.0,0.0,71,0.00,,---,0.00,VWS V14.01,2013-06-05 01:38:00,
2013-06-04 20:39:00,76.5,66.0,29.90,West,262,0.0,0.0,70,0.00,,---,0.00,VWS V14.01,2013-06-05 01:39:00,
2013-06-04 20:40:00,76.5,66.0,29.90,West,262,0.0,0.0,70,0.00,,---,0.00,VWS V14.01,2013-06-05 01:40:00,
2013-06-04 20:41:00,76.5,66.0,29.90,West,262,0.0,0.0,70,0.00,,---,0.00,VWS V14.01,2013-06-05 01:41:00,
2013-06-04 20:42:00,76.4,66.3,29.90,West,262,0.0,0.0,71,0.00,,---,0.00,VWS V14.01,2013-06-05 01:42:00,
2013-06-04 20:43:00,76.4,66.3,29.90,West,262,0.0,0.0,71,0.00,,---,0.00,VWS V14.01,2013-06-05 01:43:00,
2013-06-04 20:44:00,76.4,66.3,29.90,West,262,0.0,0.0,71,0.00,,---,0.00,VWS V14.01,2013-06-05 01:44:00,
2013-06-04 20:45:00,76.4,66.3,29.90,West,262,0.0,0.0,71,0.00,,---,0.00,VWS V14.01,2013-06-05 01:45:00,
2013-06-04 20:47:00,76.3,66.2,29.90,West,262,0.0,0.0,71,0.00,,---,0.00,VWS V14.01,2013-06-05 01:47:00,
2013-06-04 20:48:00,76.3,66.2,29.90,West,262,0.0,0.0,71,0.00,,---,0.00,VWS V14.01,2013-06-05 01:48:00,
2013-06-04 20:49:00,76.3,66.0,29.90,West,262,0.0,0.0,71,0.00,,,0.00,weatherlink.com 1.10,2013-06-05 01:49:00,
2013-06-04 20:50:00,76.2,66.1,29.90,West,262,0.0,0.0,71,0.00,,---,0.00,VWS V14.01,2013-06-05 01:50:00,
2013-06-04 20:52:00,76.2,66.1,29.90,West,262,0.0,0.0,71,0.00,,---,0.00,VWS V14.01,2013-06-05 01:52:00,
2013-06-04 20:53:00,76.2,66.1,29.90,West,262,0.0,0.0,71,0.00,,---,0.00,VWS V14.01,2013-06-05 01:53:00,
2013-06-04 20:54:00,76.1,66.0,29.90,West,262,0.0,0.0,71,0.00,,---,0.00,VWS V14.01,2013-06-05 01:54:00,
2013-06-04 20:55:00,76.1,66.4,29.90,West,262,0.0,0.0,72,0.00,,---,0.00,VWS V14.01,2013-06-05 01:55:00,
2013-06-04 20:57:00,76.0,65.9,29.90,NNE,21,0.0,1.0,71,0.00,,---,0.00,VWS V14.01,2013-06-05 01:57:00,
2013-06-04 20:58:00,76.0,66.3,29.90,NNE,21,0.0,1.0,72,0.00,,---,0.00,VWS V14.01,2013-06-05 01:58:00,
2013-06-04 20:59:00,76.0,66.3,29.90,NNE,21,0.0,1.0,72,0.00,,---,0.00,VWS V14.01,2013-06-05 01:59:00,
2013-06-04 21:00:00,76.0,66.3,29.90,NNE,21,0.0,1.0,72,0.00,,---,0.00,VWS V14.01,2013-06-05 02:00:00,
2013-06-04 21:02:00,75.9,66.2,29.90,NNE,21,0.0,0.0,72,0.00,,---,0.00,VWS V14.01,2013-06-05 02:02:00,
2013-06-04 21:03:00,75.9,66.2,29.90,NNE,21,0.0,0.0,72,0.00,,---,0.00,VWS V14.01,2013-06-05 02:03:00,
2013-06-04 21:04:00,75.8,66.1,29.91,NNE,21,0.0,0.0,72,0.00,,---,0.00,VWS V14.01,2013-06-05 02:04:00,
2013-06-04 21:05:00,75.8,66.1,29.91,NNE,22,0.0,0.0,72,0.00,,---,0.00,VWS V14.01,2013-06-05 02:05:00,
2013-06-04 21:07:00,75.8,66.1,29.90,NNE,21,0.0,0.0,72,0.00,,---,0.00,VWS V14.01,2013-06-05 02:07:00,
2013-06-04 21:08:00,75.7,66.0,29.90,NNE,21,0.0,0.0,72,0.00,,---,0.00,VWS V14.01,2013-06-05 02:08:00,
2013-06-04 21:09:00,75.7,66.0,29.90,NNE,22,0.0,0.0,72,0.00,,---,0.00,VWS V14.01,2013-06-05 02:09:00,
2013-06-04 21:11:00,75.7,66.0,29.91,NNE,21,0.0,0.0,72,0.00,,---,0.00,VWS V14.01,2013-06-05 02:11:00,
2013-06-04 21:12:00,75.7,66.0,29.91,NNE,21,0.0,0.0,72,0.00,,---,0.00,VWS V14.01,2013-06-05 02:12:00,
2013-06-04 21:14:00,75.6,65.9,29.91,NNE,21,0.0,0.0,72,0.00,,---,0.00,VWS V14.01,2013-06-05 02:14:00,
2013-06-04 21:15:00,75.5,66.2,29.91,NNE,22,0.0,0.0,73,0.00,,---,0.00,VWS V14.01,2013-06-05 02:15:00,
2013-06-04 21:16:00,75.5,66.2,29.91,NNE,21,0.0,0.0,73,0.00,,---,0.00,VWS V14.01,2013-06-05 02:16:00,
2013-06-04 21:17:00,75.5,66.2,29.91,NNE,21,0.0,0.0,73,0.00,,---,0.00,VWS V14.01,2013-06-05 02:17:00,
2013-06-04 21:19:00,75.4,66.2,29.91,NNE,21,0.0,0.0,73,0.00,,---,0.00,VWS V14.01,2013-06-05 02:19:00,
2013-06-04 21:20:00,75.4,66.2,29.91,NNE,22,0.0,0.0,73,0.00,,---,0.00,VWS V14.01,2013-06-05 02:20:00,
2013-06-04 21:21:00,75.4,66.2,29.91,East,80,0.0,3.0,73,0.00,,---,0.00,VWS V14.01,2013-06-05 02:21:00,
2013-06-04 21:23:00,75.5,66.2,29.91,East,80,0.0,3.0,73,0.00,,---,0.00,VWS V14.01,2013-06-05 02:23:00,
2013-06-04 21:24:00,75.5,66.2,29.91,ENE,77,2.0,3.0,73,0.00,,---,0.00,VWS V14.01,2013-06-05 02:24:00,
2013-06-04 21:25:00,75.5,66.2,29.91,ENE,77,0.0,3.0,73,0.00,,---,0.00,VWS V14.01,2013-06-05 02:25:00,
2013-06-04 21:26:00,75.6,66.3,29.91,ENE,77,0.0,3.0,73,0.00,,---,0.00,VWS V14.01,2013-06-05 02:26:00,
2013-06-04 21:28:00,75.7,66.0,29.91,ENE,77,0.0,3.0,72,0.00,,---,0.00,VWS V14.01,2013-06-05 02:28:00,
2013-06-04 21:29:00,75.7,66.0,29.91,ENE,77,0.0,3.0,72,0.00,,---,0.00,VWS V14.01,2013-06-05 02:29:00,
2013-06-04 21:30:00,75.7,66.0,29.91,ENE,77,0.0,3.0,72,0.00,,---,0.00,VWS V14.01,2013-06-05 02:30:00,
2013-06-04 21:31:00,75.8,66.5,29.92,ENE,77,0.0,0.0,73,0.00,,---,0.00,VWS V14.01,2013-06-05 02:31:00,
2013-06-04 21:33:00,75.8,66.1,29.92,ENE,77,0.0,0.0,72,0.00,,---,0.00,VWS V14.01,2013-06-05 02:33:00,
2013-06-04 21:34:00,75.7,66.0,29.91,ENE,77,0.0,1.0,72,0.00,,---,0.00,VWS V14.01,2013-06-05 02:34:00,
2013-06-04 21:35:00,75.8,66.1,29.91,ENE,77,0.0,1.0,72,0.00,,---,0.00,VWS V14.01,2013-06-05 02:35:00,
2013-06-04 21:36:00,75.8,66.1,29.92,ENE,77,0.0,1.0,72,0.00,,---,0.00,VWS V14.01,2013-06-05 02:36:00,
2013-06-04 21:37:00,75.7,66.0,29.92,ENE,77,0.0,1.0,72,0.00,,---,0.00,VWS V14.01,2013-06-05 02:37:00,
2013-06-04 21:38:00,75.7,66.0,29.92,ENE,77,0.0,1.0,72,0.00,,---,0.00,VWS V14.01,2013-06-05 02:38:00,
2013-06-04 21:39:00,75.7,66.4,29.92,ENE,77,0.0,1.0,73,0.00,,---,0.00,VWS V14.01,2013-06-05 02:39:00,
2013-06-04 21:41:00,75.7,66.0,29.92,ENE,77,0.0,1.0,72,0.00,,---,0.00,VWS V14.01,2013-06-05 02:41:00,
2013-06-04 21:42:00,75.7,66.0,29.92,ENE,68,0.0,2.0,72,0.00,,---,0.00,VWS V14.01,2013-06-05 02:42:00,
2013-06-04 21:43:00,75.7,66.0,29.92,ENE,68,0.0,2.0,72,0.00,,---,0.00,VWS V14.01,2013-06-05 02:43:00,
2013-06-04 21:44:00,75.8,66.1,29.92,ENE,69,1.0,2.0,72,0.00,,---,0.00,VWS V14.01,2013-06-05 02:44:00,
2013-06-04 21:46:00,75.8,66.1,29.92,ENE,74,1.0,2.0,72,0.00,,---,0.00,VWS V14.01,2013-06-05 02:46:00,
2013-06-04 21:47:00,75.8,66.1,29.92,ENE,74,1.0,2.0,72,0.00,,---,0.00,VWS V14.01,2013-06-05 02:47:00,
2013-06-04 21:48:00,75.8,66.1,29.92,ENE,74,0.0,2.0,72,0.00,,---,0.00,VWS V14.01,2013-06-05 02:48:00,
2013-06-04 21:49:00,75.9,66.2,29.92,ENE,76,0.0,2.0,72,0.00,,---,0.00,VWS V14.01,2013-06-05 02:49:00,
2013-06-04 21:52:00,75.9,66.2,29.92,ENE,72,2.0,2.0,72,0.00,,---,0.00,VWS V14.01,2013-06-05 02:52:00,
2013-06-04 21:54:00,75.8,66.1,29.92,North,8,0.0,2.0,72,0.00,,---,0.00,VWS V14.01,2013-06-05 02:54:00,
2013-06-04 21:55:00,75.8,66.1,29.92,North,8,0.0,2.0,72,0.00,,---,0.00,VWS V14.01,2013-06-05 02:55:00,
2013-06-04 21:57:00,75.9,66.2,29.92,North,8,0.0,2.0,72,0.00,,---,0.00,VWS V14.01,2013-06-05 02:57:00,
2013-06-04 21:59:00,75.8,66.1,29.92,North,8,1.0,2.0,72,0.00,,---,0.00,VWS V14.01,2013-06-05 02:59:00,
2013-06-04 22:00:00,75.8,66.1,29.92,North,7,0.0,2.0,72,0.00,,---,0.00,VWS V14.01,2013-06-05 03:00:00,
2013-06-04 22:02:00,75.8,66.1,29.92,North,7,0.0,0.0,72,0.00,,---,0.00,VWS V14.01,2013-06-05 03:02:00,
2013-06-04 22:04:00,75.7,66.0,29.92,East,86,2.0,3.0,72,0.00,,---,0.00,VWS V14.01,2013-06-05 03:04:00,
2013-06-04 22:05:00,75.7,66.0,29.92,East,86,1.0,3.0,72,0.00,,---,0.00,VWS V14.01,2013-06-05 03:05:00,
2013-06-04 22:07:00,75.7,66.0,29.92,East,86,0.0,3.0,72,0.00,,---,0.00,VWS V14.01,2013-06-05 03:07:00,
2013-06-04 22:08:00,75.7,66.0,29.92,East,86,0.0,3.0,72,0.00,,---,0.00,VWS V14.01,2013-06-05 03:08:00,
2013-06-04 22:09:00,75.7,66.0,29.92,East,100,0.0,3.0,72,0.00,,---,0.00,VWS V14.01,2013-06-05 03:09:00,
2013-06-04 22:10:00,75.7,66.4,29.92,East,99,0.0,3.0,73,0.00,,---,0.00,VWS V14.01,2013-06-05 03:10:00,
2013-06-04 22:12:00,75.6,66.3,29.92,East,99,0.0,3.0,73,0.00,,---,0.00,VWS V14.01,2013-06-05 03:12:00,
2013-06-04 22:13:00,75.6,66.3,29.92,East,100,0.0,3.0,73,0.00,,---,0.00,VWS V14.01,2013-06-05 03:13:00,
2013-06-04 22:15:00,75.5,66.2,29.92,East,100,0.0,3.0,73,0.00,,---,0.00,VWS V14.01,2013-06-05 03:15:00,
2013-06-04 22:17:00,75.4,66.2,29.93,East,99,0.0,1.0,73,0.00,,---,0.00,VWS V14.01,2013-06-05 03:17:00,
2013-06-04 22:18:00,75.4,66.2,29.92,East,100,1.0,1.0,73,0.00,,---,0.00,VWS V14.01,2013-06-05 03:18:00,
2013-06-04 22:19:00,75.3,66.1,29.92,East,98,0.0,2.0,73,0.00,,---,0.00,VWS V14.01,2013-06-05 03:19:00,
2013-06-04 22:20:00,75.3,66.1,29.92,East,98,0.0,2.0,73,0.00,,---,0.00,VWS V14.01,2013-06-05 03:20:00,
2013-06-04 22:23:00,75.2,66.3,29.93,East,98,0.0,2.0,74,0.00,,---,0.00,VWS V14.01,2013-06-05 03:23:00,
2013-06-04 22:25:00,75.0,66.2,29.93,East,98,0.0,2.0,74,0.00,,---,0.00,VWS V14.01,2013-06-05 03:25:00,
2013-06-04 22:28:00,74.8,66.0,29.93,East,98,0.0,2.0,74,0.00,,---,0.00,VWS V14.01,2013-06-05 03:28:00,
2013-06-04 22:30:00,74.7,66.3,29.93,East,98,0.0,2.0,75,0.00,,---,0.00,VWS V14.01,2013-06-05 03:30:00,
2013-06-04 22:33:00,74.5,66.1,29.93,East,98,0.0,0.0,75,0.00,,---,0.00,VWS V14.01,2013-06-05 03:33:00,
2013-06-04 22:34:00,74.4,66.3,29.93,East,98,0.0,0.0,76,0.00,,---,0.00,VWS V14.01,2013-06-05 03:34:00,
2013-06-04 22:35:00,74.3,65.9,29.93,East,98,0.0,0.0,75,0.00,,---,0.00,VWS V14.01,2013-06-05 03:35:00,
2013-06-04 22:38:00,74.1,66.1,29.93,East,98,0.0,0.0,76,0.00,,---,0.00,VWS V14.01,2013-06-05 03:38:00,
2013-06-04 22:39:00,74.1,66.1,29.93,East,98,0.0,0.0,76,0.00,,---,0.00,VWS V14.01,2013-06-05 03:39:00,
2013-06-04 22:40:00,74.0,66.0,29.93,East,98,0.0,0.0,76,0.00,,---,0.00,VWS V14.01,2013-06-05 03:40:00,
2013-06-04 22:43:00,73.9,65.9,29.92,East,98,0.0,0.0,76,0.00,,---,0.00,VWS V14.01,2013-06-05 03:43:00,
2013-06-04 22:44:00,73.8,65.8,29.93,East,98,0.0,0.0,76,0.00,,---,0.00,VWS V14.01,2013-06-05 03:44:00,
2013-06-04 22:45:00,73.8,66.2,29.92,East,98,0.0,0.0,77,0.00,,---,0.00,VWS V14.01,2013-06-05 03:45:00,
2013-06-04 22:48:00,73.7,66.1,29.93,East,98,0.0,0.0,77,0.00,,---,0.00,VWS V14.01,2013-06-05 03:48:00,
2013-06-04 22:49:00,73.7,66.1,29.93,East,98,0.0,0.0,77,0.00,,---,0.00,VWS V14.01,2013-06-05 03:49:00,
2013-06-04 22:50:00,73.7,66.1,29.92,East,98,0.0,0.0,77,0.00,,---,0.00,VWS V14.01,2013-06-05 03:50:00,
2013-06-04 22:51:00,73.7,66.1,29.92,East,98,0.0,0.0,77,0.00,,---,0.00,VWS V14.01,2013-06-05 03:51:00,
2013-06-04 22:53:00,73.6,65.9,29.92,East,98,0.0,0.0,77,0.00,,---,0.00,VWS V14.01,2013-06-05 03:53:00,
2013-06-04 22:54:00,73.6,65.9,29.92,East,98,0.0,0.0,77,0.00,,---,0.00,VWS V14.01,2013-06-05 03:54:00,
2013-06-04 22:55:00,73.5,66.2,29.92,East,98,0.0,0.0,78,0.00,,---,0.00,VWS V14.01,2013-06-05 03:55:00,
2013-06-04 22:56:00,73.5,66.2,29.92,East,98,0.0,0.0,78,0.00,,---,0.00,VWS V14.01,2013-06-05 03:56:00,
2013-06-04 22:58:00,73.5,66.2,29.93,East,98,0.0,0.0,78,0.00,,---,0.00,VWS V14.01,2013-06-05 03:58:00,
2013-06-04 22:59:00,73.4,66.1,29.93,East,98,0.0,0.0,78,0.00,,---,0.00,VWS V14.01,2013-06-05 03:59:00,
2013-06-04 23:01:00,73.4,66.1,29.93,East,98,0.0,0.0,78,0.00,,---,0.00,VWS V14.01,2013-06-05 04:01:00,
2013-06-04 23:06:00,73.2,65.9,29.93,East,98,0.0,1.0,78,0.00,,---,0.00,VWS V14.01,2013-06-05 04:06:00,
2013-06-04 23:07:00,73.2,65.9,29.93,East,98,0.0,1.0,78,0.00,,---,0.00,VWS V14.01,2013-06-05 04:07:00,
2013-06-04 23:11:00,73.2,65.9,29.93,East,98,0.0,1.0,78,0.00,,---,0.00,VWS V14.01,2013-06-05 04:11:00,
2013-06-04 23:12:00,73.2,65.9,29.93,East,98,0.0,1.0,78,0.00,,---,0.00,VWS V14.01,2013-06-05 04:12:00,
2013-06-04 23:16:00,73.1,66.2,29.93,East,98,0.0,1.0,79,0.00,,---,0.00,VWS V14.01,2013-06-05 04:16:00,
2013-06-04 23:17:00,73.1,66.2,29.93,East,98,0.0,1.0,79,0.00,,---,0.00,VWS V14.01,2013-06-05 04:17:00,
2013-06-04 23:22:00,73.0,65.7,29.92,East,98,1.0,1.0,78,0.00,,---,0.00,VWS V14.01,2013-06-05 04:22:00,
2013-06-04 23:27:00,73.1,65.8,29.92,East,99,0.0,2.0,78,0.00,,---,0.00,VWS V14.01,2013-06-05 04:27:00,
2013-06-04 23:28:00,73.0,65.7,29.92,East,100,0.0,2.0,78,0.00,,---,0.00,VWS V14.01,2013-06-05 04:28:00,
2013-06-04 23:32:00,73.1,65.8,29.92,ENE,73,3.0,3.0,78,0.00,,---,0.00,VWS V14.01,2013-06-05 04:32:00,
2013-06-04 23:33:00,73.1,65.8,29.92,ENE,73,0.0,3.0,78,0.00,,---,0.00,VWS V14.01,2013-06-05 04:33:00,
2013-06-04 23:37:00,73.2,65.9,29.92,East,87,2.0,3.0,78,0.00,,---,0.00,VWS V14.01,2013-06-05 04:37:00,
2013-06-04 23:38:00,73.2,65.6,29.92,East,88,0.0,3.0,77,0.00,,---,0.00,VWS V14.01,2013-06-05 04:38:00,
2013-06-04 23:42:00,73.3,65.7,29.92,East,80,1.0,4.0,77,0.00,,---,0.00,VWS V14.01,2013-06-05 04:42:00,
2013-06-04 23:43:00,73.3,65.7,29.92,East,82,1.0,4.0,77,0.00,,---,0.00,VWS V14.01,2013-06-05 04:43:00,
2013-06-04 23:47:00,73.3,65.7,29.92,East,82,0.0,2.0,77,0.00,,---,0.00,VWS V14.01,2013-06-05 04:47:00,
2013-06-04 23:48:00,73.3,65.7,29.92,East,82,1.0,2.0,77,0.00,,---,0.00,VWS V14.01,2013-06-05 04:48:00,
2013-06-04 23:53:00,73.2,65.6,29.92,ENE,58,4.0,4.0,77,0.00,,---,0.00,VWS V14.01,2013-06-05 04:53:00,
2013-06-04 23:54:00,73.2,65.6,29.92,East,80,0.0,4.0,77,0.00,,---,0.00,VWS V14.01,2013-06-05 04:54:00,
2013-06-04 23:58:00,73.1,65.5,29.92,ENE,77,0.0,4.0,77,0.00,,---,0.00,VWS V14.01,2013-06-05 04:58:00,
2013-06-04 23:59:00,73.0,65.4,29.92,ENE,73,0.0,4.0,77,0.00,,---,0.00,VWS V14.01,2013-06-05 04:59:00,